| time (UTC) | temp F | wind direction | speed MPH | gust MPH | rain 1hr in | rain 24hr in | rain mn in | humidity % | barometer mb |
| 20260507213256 | 69 | 310 | 7.0 | 14.0 | 0.00 | 0.25 | 0.04 | 27 | 1015.8 |
| 20260507213049 | 68 | 281 | 8.0 | 14.0 | 0.00 | 0.25 | 0.04 | 27 | 1015.9 |
| 20260507213002 | 68 | 261 | 7.0 | 14.0 | 0.00 | 0.25 | 0.04 | 27 | 1015.9 |
| 20260507212957 | 68 | 238 | 7.0 | 14.0 | 0.00 | 0.25 | 0.04 | 26 | 1015.9 |
| 20260507212643 | 68 | 327 | 7.0 | 14.0 | 0.00 | 0.26 | 0.04 | 27 | 1015.9 |
| 20260507212557 | 68 | 280 | 7.0 | 14.0 | 0.00 | 0.26 | 0.04 | 28 | 1016.0 |
| 20260507212444 | 68 | 275 | 6.0 | 14.0 | 0.00 | 0.27 | 0.04 | 27 | 1015.9 |
| 20260507212342 | 68 | 272 | 6.0 | 14.0 | 0.00 | 0.27 | 0.04 | 28 | 1016.0 |
| 20260507212239 | 67 | 264 | 6.0 | 14.0 | 0.00 | 0.27 | 0.04 | 27 | 1016.0 |
| 20260507212144 | 67 | 284 | 5.0 | 14.0 | 0.00 | 0.28 | 0.04 | 28 | 1016.1 |
| 20260507211950 | 67 | 231 | 4.0 | 12.0 | 0.00 | 0.28 | 0.04 | 28 | 1016.1 |
| 20260507211937 | 67 | 260 | 4.0 | 12.0 | 0.00 | 0.28 | 0.04 | 28 | 1016.0 |
| 20260507211837 | 67 | 287 | 4.0 | 11.0 | 0.00 | 0.29 | 0.04 | 29 | 1016.1 |
| 20260507211632 | 67 | 223 | 4.0 | 9.0 | 0.00 | 0.29 | 0.04 | 30 | 1016.1 |
| 20260507211548 | 67 | 265 | 4.0 | 9.0 | 0.00 | 0.29 | 0.04 | 30 | 1016.1 |
| 20260507211542 | 66 | 45 | 4.0 | 9.0 | 0.00 | 0.29 | 0.04 | 31 | 1016.1 |
| 20260507211227 | 66 | 63 | 4.0 | 9.0 | 0.00 | 0.29 | 0.04 | 30 | 1016.2 |
| 20260507211125 | 66 | 85 | 4.0 | 9.0 | 0.00 | 0.29 | 0.04 | 29 | 1016.1 |
| 20260507211025 | 66 | 75 | 4.0 | 9.0 | 0.00 | 0.29 | 0.04 | 29 | 1016.1 |
| 20260507210950 | 66 | 75 | 4.0 | 9.0 | 0.00 | 0.29 | 0.04 | 30 | 1016.1 |
| 20260507210925 | 65 | 59 | 4.0 | 9.0 | 0.00 | 0.29 | 0.04 | 30 | 1016.2 |
| 20260507210832 | 65 | 45 | 3.0 | 9.0 | 0.00 | 0.30 | 0.04 | 30 | 1016.2 |
| 20260507210519 | 65 | 294 | 3.0 | 6.0 | 0.00 | 0.30 | 0.04 | 29 | 1016.4 |
| 20260507210450 | 65 | 290 | 3.0 | 6.0 | 0.00 | 0.30 | 0.04 | 30 | 1016.4 |
| 20260507210420 | 65 | 325 | 3.0 | 6.0 | 0.00 | 0.31 | 0.04 | 30 | 1016.4 |
| 20260507210317 | 65 | 301 | 2.0 | 6.0 | 0.00 | 0.31 | 0.04 | 33 | 1016.4 |
| 20260507210211 | 64 | 321 | 2.0 | 6.0 | 0.00 | 0.31 | 0.04 | 32 | 1016.4 |
| 20260507210111 | 64 | 32 | 2.0 | 6.0 | 0.00 | 0.31 | 0.04 | 32 | 1016.4 |
| 20260507210011 | 64 | 318 | 2.0 | 5.0 | 0.00 | 0.32 | 0.04 | 30 | 1016.4 |
| 20260507205950 | 64 | 297 | 2.0 | 5.0 | 0.00 | 0.32 | 0.04 | 29 | 1016.4 |
| 20260507205911 | 64 | 22 | 2.0 | 5.0 | 0.00 | 0.32 | 0.04 | 29 | 1016.4 |
| 20260507205810 | 64 | 22 | 2.0 | 5.0 | 0.00 | 0.32 | 0.04 | 31 | 1016.4 |
| 20260507205722 | 64 | 5 | 2.0 | 5.0 | 0.00 | 0.32 | 0.04 | 31 | 1016.4 |
| 20260507205444 | 64 | 318 | 2.0 | 8.0 | 0.00 | 0.33 | 0.04 | 32 | 1016.4 |
| 20260507205407 | 64 | 318 | 2.0 | 8.0 | 0.00 | 0.33 | 0.04 | 32 | 1016.4 |
| 20260507205306 | 64 | 323 | 3.0 | 8.0 | 0.00 | 0.33 | 0.04 | 32 | 1016.5 |
| 20260507205205 | 64 | 288 | 3.0 | 8.0 | 0.00 | 0.33 | 0.04 | 32 | 1016.5 |
| 20260507205103 | 64 | 288 | 3.0 | 8.0 | 0.00 | 0.33 | 0.04 | 32 | 1016.5 |
| 20260507205003 | 64 | 288 | 3.0 | 8.0 | 0.00 | 0.34 | 0.04 | 31 | 1016.5 |
| 20260507204937 | 64 | 308 | 3.0 | 8.0 | 0.00 | 0.34 | 0.04 | 31 | 1016.5 |
| 20260507204901 | 64 | 355 | 3.0 | 8.0 | 0.00 | 0.34 | 0.04 | 31 | 1016.5 |
| 20260507204758 | 64 | 5 | 3.0 | 8.0 | 0.00 | 0.34 | 0.04 | 31 | 1016.6 |
| 20260507204653 | 64 | 11 | 3.0 | 8.0 | 0.00 | 0.34 | 0.04 | 34 | 1016.6 |
| 20260507204559 | 64 | 322 | 3.0 | 8.0 | 0.00 | 0.34 | 0.04 | 32 | 1016.7 |
| 20260507204431 | 64 | 336 | 3.0 | 8.0 | 0.00 | 0.35 | 0.04 | 33 | 1016.6 |
| 20260507204353 | 64 | 323 | 3.0 | 8.0 | 0.00 | 0.35 | 0.04 | 30 | 1016.6 |
| 20260507204301 | 64 | 315 | 3.0 | 8.0 | 0.00 | 0.35 | 0.04 | 32 | 1016.6 |
| 20260507204006 | 64 | 338 | 3.0 | 8.0 | 0.00 | 0.35 | 0.04 | 32 | 1016.6 |
| 20260507203959 | 64 | 329 | 3.0 | 8.0 | 0.00 | 0.35 | 0.04 | 32 | 1016.6 |
| 20260507203633 | 64 | 5 | 3.0 | 6.0 | 0.00 | 0.36 | 0.04 | 33 | 1016.6 |
| 20260507203341 | 64 | 299 | 3.0 | 6.0 | 0.00 | 0.36 | 0.04 | 31 | 1016.7 |
| 20260507203245 | 64 | 342 | 3.0 | 6.0 | 0.00 | 0.36 | 0.04 | 30 | 1016.7 |
| 20260507203056 | 64 | 302 | 4.0 | 9.0 | 0.00 | 0.36 | 0.04 | 32 | 1016.7 |
| 20260507202942 | 64 | 337 | 4.0 | 9.0 | 0.00 | 0.37 | 0.04 | 31 | 1016.8 |
| 20260507202734 | 64 | 345 | 4.0 | 10.0 | 0.00 | 0.37 | 0.04 | 30 | 1016.7 |
| 20260507202631 | 64 | 296 | 5.0 | 10.0 | 0.00 | 0.37 | 0.04 | 30 | 1016.7 |
| 20260507202538 | 64 | 309 | 5.0 | 10.0 | 0.00 | 0.37 | 0.04 | 31 | 1016.7 |
| 20260507202407 | 64 | 312 | 6.0 | 10.0 | 0.00 | 0.37 | 0.04 | 32 | 1016.7 |
| 20260507202328 | 64 | 318 | 6.0 | 11.0 | 0.00 | 0.37 | 0.04 | 32 | 1016.8 |
| 20260507202228 | 64 | 311 | 6.0 | 11.0 | 0.00 | 0.37 | 0.04 | 30 | 1016.8 |
| 20260507202123 | 64 | 288 | 6.0 | 11.0 | 0.00 | 0.37 | 0.04 | 32 | 1016.8 |
| 20260507202023 | 64 | 350 | 6.0 | 13.0 | 0.00 | 0.37 | 0.04 | 31 | 1017.0 |
| 20260507201923 | 64 | 343 | 7.0 | 13.0 | 0.00 | 0.37 | 0.04 | 31 | 1017.1 |
| 20260507201902 | 64 | 336 | 7.0 | 13.0 | 0.00 | 0.37 | 0.04 | 31 | 1017.1 |
| 20260507201822 | 65 | 300 | 7.0 | 13.0 | 0.00 | 0.37 | 0.04 | 30 | 1017.0 |
| 20260507201724 | 65 | 324 | 7.0 | 13.0 | 0.00 | 0.37 | 0.04 | 30 | 1017.0 |
| 20260507201624 | 65 | 317 | 7.0 | 13.0 | 0.00 | 0.37 | 0.04 | 30 | 1017.0 |
| 20260507201418 | 65 | 317 | 6.0 | 13.0 | 0.00 | 0.37 | 0.04 | 30 | 1017.0 |
| 20260507201356 | 65 | 328 | 6.0 | 13.0 | 0.00 | 0.37 | 0.04 | 30 | 1017.1 |
| 20260507201317 | 65 | 271 | 6.0 | 13.0 | 0.00 | 0.37 | 0.04 | 29 | 1017.1 |
| 20260507201219 | 65 | 315 | 6.0 | 13.0 | 0.00 | 0.37 | 0.04 | 31 | 1017.0 |
| 20260507201011 | 66 | 335 | 6.0 | 13.0 | 0.00 | 0.38 | 0.04 | 29 | 1017.0 |
| 20260507200923 | 66 | 342 | 7.0 | 13.0 | 0.00 | 0.38 | 0.04 | 29 | 1017.1 |
| 20260507200916 | 66 | 292 | 7.0 | 14.0 | 0.00 | 0.38 | 0.04 | 29 | 1017.1 |
| 20260507200710 | 66 | 10 | 7.0 | 15.0 | 0.00 | 0.38 | 0.04 | 29 | 1017.1 |
| 20260507200604 | 67 | 295 | 7.0 | 15.0 | 0.00 | 0.38 | 0.04 | 28 | 1017.1 |
| 20260507200532 | 67 | 329 | 7.0 | 15.0 | 0.00 | 0.38 | 0.04 | 28 | 1017.1 |
| 20260507200417 | 67 | 5 | 7.0 | 15.0 | 0.00 | 0.38 | 0.04 | 28 | 1017.1 |
| 20260507200058 | 68 | 272 | 7.0 | 15.0 | 0.00 | 0.39 | 0.04 | 30 | 1017.2 |
| 20260507195959 | 68 | 294 | 7.0 | 15.0 | 0.00 | 0.39 | 0.04 | 28 | 1017.2 |
| 20260507195859 | 68 | 311 | 7.0 | 15.0 | 0.00 | 0.39 | 0.04 | 31 | 1017.2 |
| 20260507195838 | 68 | 313 | 7.0 | 15.0 | 0.00 | 0.39 | 0.04 | 31 | 1017.2 |
| 20260507195800 | 68 | 319 | 7.0 | 15.0 | 0.00 | 0.39 | 0.04 | 34 | 1017.2 |
| 20260507195701 | 68 | 259 | 8.0 | 15.0 | 0.00 | 0.39 | 0.04 | 30 | 1017.2 |
| 20260507195452 | 67 | 253 | 9.0 | 20.0 | 0.00 | 0.39 | 0.04 | 31 | 1017.2 |
| 20260507195353 | 67 | 309 | 9.0 | 20.0 | 0.00 | 0.39 | 0.04 | 31 | 1017.2 |
| 20260507195331 | 68 | 311 | 9.0 | 20.0 | 0.00 | 0.39 | 0.04 | 31 | 1017.2 |
| 20260507195252 | 67 | 296 | 9.0 | 20.0 | 0.00 | 0.40 | 0.04 | 31 | 1017.2 |
| 20260507195153 | 67 | 293 | 9.0 | 20.0 | 0.00 | 0.40 | 0.04 | 33 | 1017.2 |
| 20260507195047 | 67 | 194 | 9.0 | 20.0 | 0.00 | 0.40 | 0.04 | 33 | 1017.2 |
| 20260507194947 | 67 | 247 | 9.0 | 20.0 | 0.00 | 0.40 | 0.04 | 33 | 1017.3 |
| 20260507194848 | 67 | 298 | 9.0 | 20.0 | 0.00 | 0.40 | 0.04 | 33 | 1017.3 |
| 20260507194827 | 67 | 313 | 9.0 | 20.0 | 0.00 | 0.40 | 0.04 | 33 | 1017.3 |
| 20260507194746 | 67 | 246 | 10.0 | 20.0 | 0.00 | 0.40 | 0.04 | 32 | 1017.3 |
| 20260507194647 | 66 | 269 | 10.0 | 20.0 | 0.00 | 0.40 | 0.04 | 31 | 1017.3 |
| 20260507194541 | 66 | 222 | 9.0 | 20.0 | 0.00 | 0.40 | 0.04 | 31 | 1017.3 |
| 20260507194441 | 66 | 245 | 10.0 | 18.0 | 0.00 | 0.40 | 0.04 | 33 | 1017.2 |
| 20260507194341 | 66 | 263 | 10.0 | 18.0 | 0.00 | 0.41 | 0.04 | 32 | 1017.3 |
| 20260507194319 | 66 | 262 | 10.0 | 18.0 | 0.00 | 0.41 | 0.04 | 32 | 1017.3 |
| 20260507194241 | 66 | 306 | 10.0 | 18.0 | 0.00 | 0.41 | 0.04 | 33 | 1017.3 |
| 20260507194142 | 66 | 300 | 11.0 | 18.0 | 0.00 | 0.41 | 0.04 | 33 | 1017.3 |
| 20260507194001 | 66 | 280 | 11.0 | 19.0 | 0.00 | 0.41 | 0.04 | 31 | 1017.3 |
| 20260507193955 | 66 | 300 | 11.0 | 19.0 | 0.00 | 0.41 | 0.04 | 32 | 1017.3 |
| 20260507193429 | 65 | 292 | 11.0 | 19.0 | 0.00 | 0.41 | 0.04 | 34 | 1017.4 |
| 20260507193328 | 65 | 274 | 11.0 | 19.0 | 0.00 | 0.41 | 0.04 | 32 | 1017.4 |
| 20260507193308 | 65 | 279 | 11.0 | 19.0 | 0.00 | 0.41 | 0.04 | 32 | 1017.4 |
| 20260507193235 | 65 | 272 | 11.0 | 19.0 | 0.00 | 0.41 | 0.04 | 33 | 1017.3 |
| 20260507193055 | 64 | 275 | 11.0 | 20.0 | 0.00 | 0.41 | 0.04 | 34 | 1017.3 |
| 20260507192941 | 64 | 286 | 11.0 | 20.0 | 0.00 | 0.41 | 0.04 | 36 | 1017.4 |
| 20260507192524 | 63 | 265 | 11.0 | 20.0 | 0.00 | 0.41 | 0.04 | 34 | 1017.3 |
| 20260507192318 | 63 | 251 | 12.0 | 23.0 | 0.00 | 0.41 | 0.04 | 33 | 1017.4 |
| 20260507192255 | 63 | 273 | 13.0 | 23.0 | 0.00 | 0.41 | 0.04 | 33 | 1017.4 |
| 20260507192224 | 63 | 297 | 13.0 | 23.0 | 0.00 | 0.41 | 0.04 | 33 | 1017.4 |
| 20260507192012 | 63 | 265 | 12.0 | 25.0 | 0.00 | 0.41 | 0.04 | 35 | 1017.4 |
| 20260507191911 | 63 | 327 | 12.0 | 25.0 | 0.00 | 0.41 | 0.04 | 35 | 1017.4 |
| 20260507191811 | 62 | 286 | 12.0 | 25.0 | 0.00 | 0.41 | 0.04 | 37 | 1017.4 |
| 20260507191750 | 62 | 285 | 12.0 | 25.0 | 0.00 | 0.41 | 0.04 | 37 | 1017.5 |
| 20260507191710 | 62 | 276 | 12.0 | 25.0 | 0.00 | 0.41 | 0.04 | 36 | 1017.5 |
| 20260507191611 | 62 | 281 | 12.0 | 25.0 | 0.00 | 0.41 | 0.04 | 35 | 1017.4 |
| 20260507191505 | 62 | 283 | 11.0 | 25.0 | 0.00 | 0.41 | 0.04 | 33 | 1017.4 |
| 20260507191405 | 62 | 258 | 11.0 | 25.0 | 0.00 | 0.41 | 0.04 | 34 | 1017.5 |
| 20260507191304 | 62 | 274 | 10.0 | 25.0 | 0.00 | 0.41 | 0.04 | 33 | 1017.4 |
| 20260507191244 | 62 | 289 | 9.0 | 25.0 | 0.00 | 0.41 | 0.04 | 33 | 1017.7 |
| 20260507191204 | 62 | 302 | 9.0 | 22.0 | 0.00 | 0.41 | 0.04 | 35 | 1017.7 |
| 20260507191105 | 61 | 284 | 9.0 | 17.0 | 0.00 | 0.41 | 0.04 | 35 | 1017.4 |
| 20260507190959 | 61 | 271 | 9.0 | 15.0 | 0.00 | 0.41 | 0.04 | 35 | 1017.4 |
| 20260507190858 | 61 | 311 | 8.0 | 15.0 | 0.00 | 0.41 | 0.04 | 34 | 1017.5 |
| 20260507190810 | 61 | 292 | 8.0 | 15.0 | 0.00 | 0.42 | 0.04 | 35 | 1017.5 |
| 20260507190804 | 61 | 323 | 8.0 | 15.0 | 0.00 | 0.42 | 0.04 | 35 | 1017.5 |
| 20260507190559 | 61 | 218 | 8.0 | 15.0 | 0.00 | 0.42 | 0.04 | 36 | 1017.5 |
| 20260507190454 | 60 | 309 | 8.0 | 15.0 | 0.00 | 0.42 | 0.04 | 36 | 1017.7 |
| 20260507190352 | 60 | 298 | 8.0 | 17.0 | 0.00 | 0.42 | 0.04 | 35 | 1017.7 |
| 20260507190253 | 60 | 239 | 9.0 | 17.0 | 0.00 | 0.42 | 0.04 | 35 | 1017.7 |
| 20260507190232 | 60 | 241 | 9.0 | 17.0 | 0.00 | 0.42 | 0.04 | 35 | 1017.7 |
| 20260507190153 | 60 | 276 | 9.0 | 17.0 | 0.00 | 0.42 | 0.04 | 34 | 1017.7 |
| 20260507190052 | 60 | 287 | 9.0 | 17.0 | 0.00 | 0.42 | 0.04 | 34 | 1017.7 |
| 20260507185955 | 60 | 227 | 8.0 | 17.0 | 0.00 | 0.42 | 0.04 | 34 | 1017.7 |
| 20260507185748 | 60 | 275 | 8.0 | 17.0 | 0.00 | 0.42 | 0.04 | 34 | 1017.7 |
| 20260507185726 | 60 | 281 | 8.0 | 17.0 | 0.00 | 0.42 | 0.04 | 34 | 1017.7 |
| 20260507185648 | 60 | 281 | 7.0 | 17.0 | 0.00 | 0.42 | 0.04 | 34 | 1017.7 |
| 20260507185545 | 60 | 283 | 8.0 | 17.0 | 0.00 | 0.42 | 0.04 | 34 | 1017.7 |
| 20260507185442 | 60 | 261 | 7.0 | 17.0 | 0.00 | 0.42 | 0.04 | 34 | 1017.8 |
| 20260507185341 | 60 | 302 | 7.0 | 15.0 | 0.00 | 0.42 | 0.04 | 35 | 1017.8 |
| 20260507185241 | 60 | 302 | 7.0 | 13.0 | 0.00 | 0.42 | 0.04 | 35 | 1017.7 |
| 20260507185221 | 60 | 241 | 7.0 | 13.0 | 0.00 | 0.42 | 0.04 | 35 | 1017.7 |
| 20260507185140 | 60 | 294 | 7.0 | 13.0 | 0.00 | 0.42 | 0.04 | 37 | 1017.7 |
| 20260507185040 | 60 | 248 | 7.0 | 13.0 | 0.00 | 0.42 | 0.04 | 37 | 1017.7 |
| 20260507184935 | 60 | 272 | 7.0 | 13.0 | 0.00 | 0.42 | 0.04 | 37 | 1017.7 |
| 20260507184834 | 60 | 252 | 7.0 | 13.0 | 0.00 | 0.42 | 0.04 | 36 | 1017.7 |
| 20260507184734 | 60 | 245 | 7.0 | 13.0 | 0.00 | 0.42 | 0.04 | 36 | 1017.7 |
| 20260507184715 | 60 | 286 | 7.0 | 13.0 | 0.00 | 0.42 | 0.04 | 36 | 1017.7 |
| 20260507184634 | 60 | 252 | 7.0 | 13.0 | 0.00 | 0.42 | 0.04 | 34 | 1017.7 |
| 20260507184535 | 60 | 278 | 6.0 | 13.0 | 0.00 | 0.42 | 0.04 | 35 | 1017.7 |
| 20260507184335 | 60 | 291 | 6.0 | 11.0 | 0.00 | 0.42 | 0.04 | 34 | 1017.8 |
| 20260507184208 | 60 | 258 | 6.0 | 11.0 | 0.00 | 0.42 | 0.04 | 35 | 1017.8 |
| 20260507184128 | 60 | 259 | 5.0 | 11.0 | 0.00 | 0.42 | 0.04 | 36 | 1017.8 |
| 20260507184028 | 60 | 285 | 5.0 | 11.0 | 0.00 | 0.42 | 0.04 | 35 | 1017.8 |
| 20260507183922 | 60 | 301 | 5.0 | 10.0 | 0.00 | 0.42 | 0.04 | 36 | 1017.8 |
| 20260507183822 | 60 | 308 | 5.0 | 10.0 | 0.00 | 0.42 | 0.04 | 35 | 1017.8 |
| 20260507183724 | 60 | 254 | 5.0 | 10.0 | 0.00 | 0.42 | 0.04 | 35 | 1017.8 |
| 20260507183702 | 60 | 249 | 5.0 | 10.0 | 0.00 | 0.42 | 0.04 | 37 | 1017.8 |
| 20260507183622 | 60 | 272 | 5.0 | 12.0 | 0.00 | 0.42 | 0.04 | 36 | 1017.8 |
| 20260507183523 | 60 | 235 | 6.0 | 12.0 | 0.00 | 0.42 | 0.04 | 37 | 1017.8 |
| 20260507183417 | 60 | 287 | 6.0 | 13.0 | 0.00 | 0.42 | 0.04 | 37 | 1017.8 |
| 20260507183323 | 60 | 304 | 6.0 | 13.0 | 0.00 | 0.42 | 0.04 | 35 | 1017.8 |
| 20260507183156 | 60 | 321 | 5.0 | 13.0 | 0.00 | 0.42 | 0.04 | 34 | 1017.9 |
| 20260507183116 | 60 | 292 | 5.0 | 13.0 | 0.00 | 0.42 | 0.04 | 35 | 1017.8 |
| 20260507183016 | 60 | 304 | 5.0 | 13.0 | 0.00 | 0.42 | 0.04 | 36 | 1017.9 |
| 20260507182910 | 60 | 261 | 5.0 | 13.0 | 0.00 | 0.42 | 0.04 | 35 | 1017.8 |
| 20260507182811 | 60 | 229 | 6.0 | 13.0 | 0.00 | 0.42 | 0.04 | 36 | 1017.9 |
| 20260507182723 | 60 | 290 | 6.0 | 13.0 | 0.00 | 0.42 | 0.04 | 36 | 1017.9 |
| 20260507182716 | 60 | 257 | 6.0 | 13.0 | 0.00 | 0.42 | 0.04 | 36 | 1017.9 |
| 20260507182517 | 60 | 259 | 6.0 | 13.0 | 0.00 | 0.42 | 0.04 | 36 | 1017.9 |
| 20260507182309 | 60 | 297 | 6.0 | 13.0 | 0.00 | 0.42 | 0.04 | 37 | 1017.9 |
| 20260507182223 | 60 | 298 | 6.0 | 13.0 | 0.00 | 0.42 | 0.04 | 37 | 1017.9 |
| 20260507182216 | 60 | 257 | 6.0 | 13.0 | 0.00 | 0.42 | 0.04 | 36 | 1017.9 |
| 20260507181858 | 60 | 250 | 5.0 | 13.0 | 0.00 | 0.42 | 0.04 | 36 | 1017.8 |
| 20260507181758 | 60 | 273 | 5.0 | 13.0 | 0.00 | 0.42 | 0.04 | 37 | 1017.9 |
| 20260507181659 | 60 | 260 | 4.0 | 10.0 | 0.00 | 0.42 | 0.04 | 37 | 1017.9 |
| 20260507181638 | 60 | 284 | 4.0 | 10.0 | 0.00 | 0.42 | 0.04 | 39 | 1017.8 |
| 20260507181559 | 60 | 258 | 4.0 | 8.0 | 0.00 | 0.42 | 0.04 | 39 | 1017.8 |
| 20260507181458 | 60 | 286 | 4.0 | 8.0 | 0.00 | 0.42 | 0.04 | 38 | 1017.8 |
| 20260507181352 | 60 | 243 | 4.0 | 8.0 | 0.00 | 0.42 | 0.04 | 38 | 1017.8 |
| 20260507181254 | 59 | 265 | 3.0 | 8.0 | 0.00 | 0.42 | 0.04 | 38 | 1017.8 |
| 20260507181153 | 59 | 288 | 3.0 | 8.0 | 0.00 | 0.42 | 0.04 | 38 | 1017.8 |
| 20260507181131 | 59 | 277 | 3.0 | 8.0 | 0.00 | 0.42 | 0.04 | 39 | 1017.8 |
| 20260507181054 | 59 | 259 | 3.0 | 8.0 | 0.00 | 0.42 | 0.04 | 39 | 1017.8 |
| 20260507180952 | 59 | 261 | 3.0 | 8.0 | 0.00 | 0.42 | 0.04 | 39 | 1017.8 |
| 20260507180902 | 59 | 240 | 3.0 | 8.0 | 0.00 | 0.42 | 0.04 | 39 | 1017.8 |
| 20260507180625 | 59 | 274 | 3.0 | 7.0 | 0.00 | 0.42 | 0.04 | 40 | 1017.8 |
| 20260507180548 | 59 | 267 | 3.0 | 7.0 | 0.00 | 0.42 | 0.04 | 40 | 1017.8 |
| 20260507180446 | 59 | 275 | 3.0 | 7.0 | 0.00 | 0.42 | 0.04 | 39 | 1017.9 |
| 20260507180342 | 59 | 275 | 3.0 | 7.0 | 0.00 | 0.42 | 0.04 | 39 | 1017.9 |
| 20260507180243 | 59 | 254 | 3.0 | 7.0 | 0.00 | 0.42 | 0.04 | 39 | 1017.9 |
| 20260507180226 | 59 | 227 | 3.0 | 7.0 | 0.00 | 0.42 | 0.04 | 38 | 1017.9 |
| 20260507180043 | 59 | 266 | 4.0 | 7.0 | 0.00 | 0.42 | 0.04 | 38 | 1017.9 |
| 20260507175940 | 59 | 265 | 3.0 | 8.0 | 0.00 | 0.42 | 0.04 | 38 | 1017.9 |
| 20260507175843 | 59 | 223 | 3.0 | 8.0 | 0.00 | 0.42 | 0.04 | 38 | 1017.9 |
| 20260507175647 | 59 | 277 | 3.0 | 9.0 | 0.00 | 0.42 | 0.04 | 40 | 1017.9 |
| 20260507175640 | 58 | 259 | 3.0 | 9.0 | 0.00 | 0.42 | 0.04 | 40 | 1017.9 |
| 20260507175435 | 58 | 263 | 4.0 | 9.0 | 0.00 | 0.42 | 0.04 | 40 | 1017.9 |
| 20260507175336 | 58 | 290 | 4.0 | 9.0 | 0.00 | 0.42 | 0.04 | 40 | 1017.9 |
| 20260507175129 | 58 | 277 | 4.0 | 9.0 | 0.00 | 0.42 | 0.04 | 40 | 1018.0 |
| 20260507175109 | 58 | 286 | 4.0 | 9.0 | 0.00 | 0.42 | 0.04 | 40 | 1018.0 |
| 20260507175035 | 58 | 269 | 4.0 | 9.0 | 0.00 | 0.42 | 0.04 | 40 | 1018.0 |
| 20260507174824 | 58 | 265 | 4.0 | 9.0 | 0.00 | 0.42 | 0.04 | 40 | 1018.0 |
| 20260507174722 | 58 | 275 | 4.0 | 9.0 | 0.00 | 0.42 | 0.04 | 40 | 1018.0 |
| 20260507174623 | 58 | 262 | 4.0 | 8.0 | 0.00 | 0.43 | 0.04 | 40 | 1018.0 |
| 20260507174602 | 58 | 288 | 4.0 | 8.0 | 0.00 | 0.43 | 0.04 | 40 | 1018.0 |
| 20260507174522 | 58 | 285 | 4.0 | 8.0 | 0.00 | 0.43 | 0.04 | 41 | 1018.0 |
| 20260507174423 | 58 | 294 | 4.0 | 8.0 | 0.00 | 0.43 | 0.04 | 39 | 1018.0 |
| 20260507174316 | 58 | 298 | 4.0 | 8.0 | 0.00 | 0.43 | 0.04 | 40 | 1018.0 |
| 20260507174242 | 58 | 278 | 4.0 | 10.0 | 0.00 | 0.43 | 0.04 | 40 | 1017.9 |
| 20260507174235 | 58 | 294 | 4.0 | 10.0 | 0.00 | 0.43 | 0.04 | 40 | 1018.0 |
| 20260507173811 | 58 | 287 | 6.0 | 13.0 | 0.00 | 0.43 | 0.04 | 38 | 1018.0 |
| 20260507173710 | 58 | 310 | 5.0 | 13.0 | 0.00 | 0.43 | 0.04 | 39 | 1018.0 |
| 20260507173611 | 58 | 310 | 5.0 | 13.0 | 0.00 | 0.43 | 0.04 | 38 | 1018.0 |
| 20260507173549 | 58 | 294 | 5.0 | 13.0 | 0.00 | 0.43 | 0.04 | 38 | 1018.1 |
| 20260507173510 | 58 | 299 | 5.0 | 13.0 | 0.00 | 0.43 | 0.04 | 38 | 1018.1 |
| 20260507173414 | 58 | 296 | 5.0 | 13.0 | 0.00 | 0.43 | 0.04 | 38 | 1018.0 |
| 20260507173207 | 58 | 289 | 4.0 | 13.0 | 0.00 | 0.43 | 0.04 | 37 | 1018.1 |
| 20260507173118 | 58 | 315 | 4.0 | 13.0 | 0.00 | 0.43 | 0.04 | 37 | 1018.1 |
| 20260507173111 | 58 | 279 | 4.0 | 13.0 | 0.00 | 0.43 | 0.04 | 37 | 1018.1 |
| 20260507172905 | 58 | 309 | 3.0 | 13.0 | 0.00 | 0.43 | 0.04 | 38 | 1018.1 |
| 20260507172759 | 58 | 302 | 3.0 | 8.0 | 0.00 | 0.43 | 0.04 | 39 | 1018.0 |
| 20260507172718 | 58 | 284 | 4.0 | 9.0 | 0.00 | 0.43 | 0.04 | 39 | 1018.1 |
| 20260507172710 | 58 | 327 | 4.0 | 9.0 | 0.00 | 0.43 | 0.04 | 38 | 1018.1 |
| 20260507172358 | 58 | 272 | 5.0 | 9.0 | 0.00 | 0.43 | 0.04 | 39 | 1018.1 |
| 20260507172306 | 58 | 290 | 5.0 | 9.0 | 0.00 | 0.43 | 0.04 | 39 | 1018.3 |
| 20260507172054 | 58 | 272 | 6.0 | 11.0 | 0.00 | 0.43 | 0.04 | 38 | 1018.3 |
| 20260507172031 | 58 | 275 | 6.0 | 11.0 | 0.00 | 0.43 | 0.04 | 38 | 1018.1 |
| 20260507172000 | 58 | 321 | 6.0 | 11.0 | 0.00 | 0.43 | 0.04 | 37 | 1018.1 |
| 20260507171653 | 58 | 300 | 5.0 | 11.0 | 0.00 | 0.43 | 0.04 | 39 | 1018.1 |
| 20260507171526 | 58 | 270 | 5.0 | 11.0 | 0.00 | 0.43 | 0.04 | 38 | 1018.3 |
| 20260507171446 | 58 | 263 | 4.0 | 11.0 | 0.00 | 0.43 | 0.04 | 38 | 1018.3 |
| 20260507171347 | 58 | 312 | 4.0 | 11.0 | 0.00 | 0.43 | 0.04 | 37 | 1018.3 |
| 20260507171244 | 58 | 293 | 4.0 | 11.0 | 0.00 | 0.43 | 0.04 | 38 | 1018.1 |
| 20260507171201 | 58 | 294 | 4.0 | 8.0 | 0.00 | 0.43 | 0.04 | 40 | 1018.1 |
| 20260507171047 | 58 | 292 | 4.0 | 8.0 | 0.00 | 0.43 | 0.04 | 40 | 1018.1 |
| 20260507170840 | 58 | 300 | 4.0 | 8.0 | 0.00 | 0.43 | 0.04 | 40 | 1018.1 |
| 20260507170734 | 58 | 279 | 4.0 | 8.0 | 0.00 | 0.43 | 0.04 | 39 | 1018.1 |
| 20260507170634 | 58 | 279 | 4.0 | 8.0 | 0.00 | 0.43 | 0.04 | 40 | 1018.1 |
| 20260507170513 | 58 | 254 | 4.0 | 8.0 | 0.00 | 0.43 | 0.04 | 39 | 1018.1 |
| 20260507170435 | 58 | 306 | 3.0 | 8.0 | 0.00 | 0.43 | 0.04 | 38 | 1018.1 |
| 20260507170337 | 58 | 293 | 3.0 | 8.0 | 0.00 | 0.43 | 0.04 | 40 | 1018.1 |
| 20260507170136 | 57 | 298 | 3.0 | 7.0 | 0.00 | 0.43 | 0.04 | 43 | 1018.3 |
| 20260507170007 | 57 | 301 | 3.0 | 7.0 | 0.00 | 0.43 | 0.04 | 43 | 1018.3 |
| 20260507165929 | 57 | 300 | 2.0 | 7.0 | 0.00 | 0.43 | 0.04 | 43 | 1018.1 |
| 20260507165829 | 57 | 288 | 2.0 | 7.0 | 0.00 | 0.43 | 0.04 | 42 | 1018.1 |
| 20260507165730 | 57 | 278 | 2.0 | 7.0 | 0.00 | 0.43 | 0.04 | 41 | 1018.3 |
| 20260507165627 | 57 | 278 | 2.0 | 7.0 | 0.00 | 0.43 | 0.04 | 41 | 1018.3 |
| 20260507165526 | 57 | 297 | 2.0 | 7.0 | 0.00 | 0.43 | 0.04 | 42 | 1018.3 |
| 20260507165503 | 57 | 294 | 2.0 | 7.0 | 0.00 | 0.43 | 0.04 | 42 | 1018.3 |
| 20260507165426 | 57 | 263 | 2.0 | 7.0 | 0.00 | 0.43 | 0.04 | 43 | 1018.3 |
| 20260507165322 | 56 | 261 | 2.0 | 7.0 | 0.00 | 0.43 | 0.04 | 42 | 1018.3 |
| 20260507165216 | 56 | 261 | 2.0 | 7.0 | 0.00 | 0.43 | 0.04 | 41 | 1018.1 |
| 20260507165116 | 56 | 313 | 3.0 | 7.0 | 0.00 | 0.43 | 0.04 | 42 | 1018.1 |
| 20260507165017 | 56 | 340 | 3.0 | 7.0 | 0.00 | 0.43 | 0.04 | 42 | 1018.1 |
| 20260507164956 | 56 | 55 | 3.0 | 7.0 | 0.00 | 0.43 | 0.04 | 42 | 1018.1 |
| 20260507164916 | 56 | 55 | 3.0 | 7.0 | 0.00 | 0.43 | 0.04 | 43 | 1018.1 |
| 20260507164817 | 56 | 69 | 3.0 | 7.0 | 0.00 | 0.43 | 0.04 | 43 | 1018.1 |
| 20260507164712 | 56 | 171 | 3.0 | 7.0 | 0.00 | 0.43 | 0.04 | 44 | 1018.1 |
| 20260507164612 | 57 | 171 | 3.0 | 7.0 | 0.00 | 0.43 | 0.04 | 45 | 1018.1 |
| 20260507164523 | 57 | 171 | 3.0 | 7.0 | 0.00 | 0.43 | 0.04 | 46 | 1018.1 |
| 20260507164517 | 57 | 165 | 3.0 | 7.0 | 0.00 | 0.43 | 0.04 | 46 | 1018.1 |
| 20260507164311 | 57 | 127 | 3.0 | 7.0 | 0.00 | 0.43 | 0.04 | 44 | 1018.1 |
| 20260507164211 | 57 | 127 | 3.0 | 7.0 | 0.00 | 0.43 | 0.04 | 45 | 1018.0 |
| 20260507164006 | 57 | 86 | 2.0 | 5.0 | 0.00 | 0.43 | 0.04 | 43 | 1018.1 |
| 20260507163943 | 57 | 86 | 2.0 | 5.0 | 0.00 | 0.43 | 0.04 | 43 | 1018.3 |
| 20260507163905 | 57 | 82 | 2.0 | 5.0 | 0.00 | 0.43 | 0.04 | 43 | 1018.3 |
| 20260507163808 | 57 | 136 | 2.0 | 10.0 | 0.00 | 0.43 | 0.04 | 42 | 1018.3 |
| 20260507163601 | 57 | 136 | 4.0 | 10.0 | 0.00 | 0.43 | 0.04 | 43 | 1018.3 |
| 20260507163500 | 57 | 124 | 4.0 | 10.0 | 0.00 | 0.43 | 0.04 | 42 | 1018.1 |
| 20260507163439 | 57 | 161 | 4.0 | 10.0 | 0.00 | 0.43 | 0.04 | 42 | 1018.1 |
| 20260507163400 | 57 | 157 | 4.0 | 10.0 | 0.00 | 0.43 | 0.04 | 44 | 1018.1 |
| 20260507163259 | 57 | 128 | 4.0 | 10.0 | 0.00 | 0.43 | 0.04 | 43 | 1018.1 |
| 20260507163059 | 57 | 128 | 4.0 | 10.0 | 0.00 | 0.43 | 0.04 | 41 | 1018.1 |
| 20260507162932 | 57 | 128 | 5.0 | 10.0 | 0.00 | 0.43 | 0.04 | 41 | 1018.1 |
| 20260507162852 | 57 | 127 | 4.0 | 10.0 | 0.00 | 0.43 | 0.04 | 40 | 1018.1 |
| 20260507162752 | 57 | 123 | 4.0 | 10.0 | 0.00 | 0.43 | 0.04 | 40 | 1018.3 |
| 20260507162650 | 57 | 126 | 4.0 | 10.0 | 0.01 | 0.43 | 0.04 | 41 | 1018.3 |
| 20260507162557 | 57 | 140 | 3.0 | 9.0 | 0.01 | 0.43 | 0.04 | 41 | 1018.3 |
| 20260507162425 | 57 | 136 | 3.0 | 9.0 | 0.01 | 0.43 | 0.04 | 42 | 1018.4 |
| 20260507162351 | 57 | 98 | 3.0 | 9.0 | 0.01 | 0.43 | 0.04 | 42 | 1018.3 |
| 20260507162251 | 58 | 98 | 3.0 | 9.0 | 0.01 | 0.43 | 0.04 | 43 | 1018.4 |
| 20260507162150 | 58 | 98 | 3.0 | 9.0 | 0.01 | 0.43 | 0.04 | 42 | 1018.3 |
| 20260507162048 | 58 | 98 | 4.0 | 9.0 | 0.01 | 0.43 | 0.04 | 42 | 1018.1 |
| 20260507161949 | 58 | 90 | 4.0 | 9.0 | 0.01 | 0.43 | 0.04 | 42 | 1018.3 |
| 20260507161922 | 58 | 87 | 4.0 | 10.0 | 0.01 | 0.43 | 0.04 | 42 | 1018.3 |
| 20260507161849 | 58 | 84 | 4.0 | 10.0 | 0.01 | 0.43 | 0.04 | 42 | 1018.4 |
| 20260507161749 | 58 | 294 | 4.0 | 10.0 | 0.01 | 0.43 | 0.04 | 43 | 1018.3 |
| 20260507161649 | 58 | 294 | 4.0 | 10.0 | 0.01 | 0.43 | 0.04 | 42 | 1018.4 |
| 20260507161550 | 58 | 294 | 4.0 | 10.0 | 0.01 | 0.43 | 0.04 | 42 | 1018.4 |
| 20260507161459 | 58 | 263 | 3.0 | 10.0 | 0.01 | 0.43 | 0.04 | 44 | 1018.3 |
| 20260507161452 | 58 | 247 | 3.0 | 10.0 | 0.01 | 0.43 | 0.04 | 43 | 1018.3 |
| 20260507161248 | 58 | 262 | 3.0 | 10.0 | 0.01 | 0.43 | 0.04 | 43 | 1018.1 |
| 20260507161148 | 58 | 90 | 3.0 | 10.0 | 0.01 | 0.43 | 0.04 | 42 | 1018.1 |
| 20260507161049 | 58 | 120 | 2.0 | 10.0 | 0.01 | 0.43 | 0.04 | 41 | 1018.1 |
| 20260507161029 | 58 | 127 | 2.0 | 9.0 | 0.01 | 0.43 | 0.04 | 41 | 1018.4 |
| 20260507160842 | 58 | 101 | 2.0 | 4.0 | 0.01 | 0.43 | 0.04 | 41 | 1018.4 |
| 20260507160750 | 58 | 84 | 2.0 | 4.0 | 0.01 | 0.43 | 0.04 | 41 | 1018.4 |
| 20260507160540 | 58 | 44 | 2.0 | 6.0 | 0.01 | 0.43 | 0.04 | 39 | 1018.4 |
| 20260507160440 | 58 | 26 | 2.0 | 6.0 | 0.01 | 0.43 | 0.04 | 41 | 1018.4 |
| 20260507160423 | 58 | 26 | 2.0 | 6.0 | 0.01 | 0.43 | 0.04 | 42 | 1018.4 |
| 20260507160338 | 58 | 304 | 2.0 | 6.0 | 0.01 | 0.43 | 0.04 | 42 | 1018.5 |
| 20260507160239 | 58 | 304 | 3.0 | 6.0 | 0.01 | 0.43 | 0.04 | 43 | 1018.5 |
| 20260507160136 | 58 | 304 | 3.0 | 10.0 | 0.01 | 0.43 | 0.04 | 42 | 1018.4 |
| 20260507160034 | 58 | 305 | 3.0 | 10.0 | 0.01 | 0.43 | 0.04 | 40 | 1018.4 |
| 20260507155922 | 58 | 88 | 4.0 | 10.0 | 0.01 | 0.43 | 0.04 | 40 | 1018.4 |
| 20260507155837 | 58 | 88 | 4.0 | 10.0 | 0.01 | 0.43 | 0.04 | 41 | 1018.4 |
| 20260507155629 | 58 | 88 | 4.0 | 10.0 | 0.01 | 0.43 | 0.04 | 41 | 1018.4 |
| 20260507155528 | 58 | 87 | 4.0 | 10.0 | 0.01 | 0.43 | 0.04 | 42 | 1018.4 |
| 20260507155424 | 58 | 68 | 5.0 | 10.0 | 0.01 | 0.43 | 0.04 | 42 | 1018.3 |
| 20260507155322 | 58 | 88 | 5.0 | 10.0 | 0.01 | 0.43 | 0.04 | 42 | 1018.4 |
| 20260507155223 | 58 | 71 | 5.0 | 10.0 | 0.01 | 0.43 | 0.04 | 42 | 1018.4 |
| 20260507155122 | 57 | 76 | 5.0 | 9.0 | 0.01 | 0.43 | 0.04 | 42 | 1018.4 |
| 20260507155030 | 58 | 75 | 5.0 | 9.0 | 0.02 | 0.43 | 0.04 | 43 | 1018.4 |
| 20260507155023 | 58 | 47 | 5.0 | 9.0 | 0.02 | 0.43 | 0.04 | 42 | 1018.4 |
| 20260507154817 | 58 | 63 | 5.0 | 9.0 | 0.02 | 0.43 | 0.04 | 42 | 1018.4 |
| 20260507154717 | 58 | 55 | 5.0 | 9.0 | 0.02 | 0.43 | 0.04 | 42 | 1018.4 |
| 20260507154618 | 58 | 41 | 5.0 | 9.0 | 0.02 | 0.43 | 0.04 | 42 | 1018.4 |
| 20260507154516 | 58 | 35 | 5.0 | 10.0 | 0.02 | 0.43 | 0.04 | 41 | 1018.4 |
| 20260507154420 | 58 | 67 | 5.0 | 10.0 | 0.02 | 0.43 | 0.04 | 41 | 1018.4 |
| 20260507154415 | 58 | 61 | 5.0 | 10.0 | 0.02 | 0.43 | 0.04 | 41 | 1018.4 |
| 20260507154313 | 59 | 57 | 5.0 | 11.0 | 0.02 | 0.43 | 0.04 | 42 | 1018.4 |
| 20260507154214 | 59 | 29 | 5.0 | 11.0 | 0.02 | 0.43 | 0.04 | 40 | 1018.4 |
| 20260507154113 | 59 | 33 | 5.0 | 11.0 | 0.02 | 0.43 | 0.04 | 40 | 1018.4 |
| 20260507154013 | 59 | 77 | 5.0 | 11.0 | 0.02 | 0.43 | 0.04 | 42 | 1018.4 |
| 20260507153920 | 59 | 36 | 6.0 | 11.0 | 0.02 | 0.43 | 0.04 | 42 | 1018.3 |
| 20260507153913 | 59 | 61 | 6.0 | 11.0 | 0.02 | 0.43 | 0.04 | 42 | 1018.3 |
| 20260507153813 | 58 | 56 | 6.0 | 11.0 | 0.02 | 0.43 | 0.04 | 42 | 1018.4 |
| 20260507153713 | 58 | 41 | 6.0 | 11.0 | 0.02 | 0.43 | 0.04 | 42 | 1018.4 |
| 20260507153613 | 58 | 46 | 6.0 | 11.0 | 0.02 | 0.43 | 0.04 | 42 | 1018.4 |
| 20260507153513 | 58 | 67 | 6.0 | 11.0 | 0.02 | 0.43 | 0.04 | 42 | 1018.4 |
| 20260507153418 | 58 | 55 | 6.0 | 11.0 | 0.02 | 0.43 | 0.04 | 42 | 1018.4 |
| 20260507153413 | 58 | 57 | 6.0 | 11.0 | 0.02 | 0.43 | 0.04 | 42 | 1018.4 |
| 20260507153314 | 58 | 44 | 6.0 | 11.0 | 0.02 | 0.43 | 0.04 | 41 | 1018.4 |
| 20260507153213 | 58 | 37 | 6.0 | 11.0 | 0.02 | 0.43 | 0.04 | 42 | 1018.4 |
| 20260507153114 | 58 | 42 | 6.0 | 11.0 | 0.02 | 0.43 | 0.04 | 41 | 1018.4 |
| 20260507153013 | 58 | 67 | 6.0 | 11.0 | 0.02 | 0.43 | 0.04 | 40 | 1018.4 |
| 20260507152929 | 58 | 39 | 6.0 | 11.0 | 0.02 | 0.43 | 0.04 | 40 | 1018.4 |
| 20260507152925 | 58 | 40 | 6.0 | 11.0 | 0.02 | 0.43 | 0.04 | 40 | 1018.4 |
| 20260507152611 | 58 | 49 | 4.0 | 9.0 | 0.01 | 0.42 | 0.03 | 41 | 1018.4 |
| 20260507152511 | 58 | 38 | 4.0 | 9.0 | 0.01 | 0.42 | 0.03 | 41 | 1018.4 |
| 20260507152417 | 58 | 28 | 4.0 | 9.0 | 0.01 | 0.42 | 0.03 | 41 | 1018.4 |
| 20260507152411 | 58 | 19 | 4.0 | 9.0 | 0.01 | 0.42 | 0.03 | 41 | 1018.4 |
| 20260507152311 | 58 | 64 | 4.0 | 9.0 | 0.01 | 0.42 | 0.03 | 41 | 1018.4 |
| 20260507152212 | 58 | 52 | 3.0 | 8.0 | 0.01 | 0.42 | 0.03 | 41 | 1018.4 |
| 20260507152117 | 58 | 83 | 3.0 | 7.0 | 0.01 | 0.42 | 0.03 | 42 | 1018.4 |
| 20260507151912 | 58 | 94 | 4.0 | 7.0 | 0.01 | 0.42 | 0.03 | 43 | 1018.4 |
| 20260507151811 | 58 | 94 | 4.0 | 8.0 | 0.01 | 0.42 | 0.03 | 43 | 1018.4 |
| 20260507151711 | 57 | 94 | 4.0 | 8.0 | 0.01 | 0.42 | 0.03 | 45 | 1018.4 |
| 20260507151611 | 57 | 78 | 4.0 | 9.0 | 0.01 | 0.42 | 0.03 | 45 | 1018.4 |
| 20260507151509 | 57 | 57 | 4.0 | 9.0 | 0.01 | 0.42 | 0.03 | 46 | 1018.4 |
| 20260507151418 | 57 | 34 | 4.0 | 9.0 | 0.01 | 0.42 | 0.03 | 47 | 1018.4 |
| 20260507151410 | 57 | 40 | 4.0 | 9.0 | 0.01 | 0.42 | 0.03 | 47 | 1018.4 |
| 20260507151307 | 57 | 31 | 4.0 | 9.0 | 0.01 | 0.42 | 0.03 | 44 | 1018.4 |
| 20260507151208 | 57 | 61 | 4.0 | 9.0 | 0.01 | 0.42 | 0.03 | 43 | 1018.4 |
| 20260507151107 | 57 | 40 | 4.0 | 9.0 | 0.01 | 0.42 | 0.03 | 42 | 1018.4 |
| 20260507151007 | 58 | 61 | 3.0 | 9.0 | 0.01 | 0.42 | 0.03 | 42 | 1018.3 |
| 20260507150920 | 58 | 15 | 3.0 | 9.0 | 0.01 | 0.42 | 0.03 | 43 | 1018.4 |
| 20260507150915 | 58 | 51 | 3.0 | 9.0 | 0.01 | 0.42 | 0.03 | 43 | 1018.4 |
| 20260507150707 | 58 | 24 | 3.0 | 9.0 | 0.01 | 0.42 | 0.03 | 44 | 1018.4 |
| 20260507150632 | 58 | 344 | 3.0 | 5.0 | 0.01 | 0.42 | 0.03 | 44 | 1018.4 |
| 20260507150518 | 57 | 132 | 2.0 | 5.0 | 0.01 | 0.42 | 0.03 | 43 | 1018.4 |
| 20260507150215 | 57 | 132 | 2.0 | 5.0 | 0.01 | 0.42 | 0.03 | 43 | 1018.3 |
| 20260507150006 | 56 | 82 | 2.0 | 6.0 | 0.01 | 0.42 | 0.03 | 43 | 1018.3 |
| 20260507145917 | 56 | 88 | 2.0 | 6.0 | 0.01 | 0.42 | 0.03 | 44 | 1018.3 |
| 20260507145906 | 56 | 71 | 2.0 | 6.0 | 0.01 | 0.42 | 0.03 | 44 | 1018.3 |
| 20260507145806 | 56 | 46 | 2.0 | 6.0 | 0.01 | 0.42 | 0.03 | 44 | 1018.3 |
| 20260507145709 | 56 | 55 | 3.0 | 6.0 | 0.01 | 0.42 | 0.03 | 44 | 1018.1 |
| 20260507145504 | 56 | 49 | 2.0 | 6.0 | 0.01 | 0.42 | 0.03 | 43 | 1018.3 |
| 20260507145404 | 55 | 49 | 2.0 | 6.0 | 0.01 | 0.42 | 0.03 | 43 | 1018.3 |
| 20260507145306 | 55 | 49 | 2.0 | 6.0 | 0.01 | 0.42 | 0.03 | 43 | 1018.1 |
| 20260507145202 | 55 | 49 | 2.0 | 6.0 | 0.01 | 0.42 | 0.03 | 44 | 1018.1 |
| 20260507145100 | 55 | 49 | 2.0 | 6.0 | 0.01 | 0.42 | 0.03 | 43 | 1018.1 |
| 20260507144959 | 55 | 9 | 1.0 | 6.0 | 0.00 | 0.41 | 0.03 | 41 | 1018.1 |
| 20260507144918 | 55 | 9 | 1.0 | 6.0 | 0.00 | 0.41 | 0.02 | 41 | 1018.1 |
| 20260507144859 | 55 | 9 | 1.0 | 6.0 | 0.00 | 0.41 | 0.02 | 40 | 1018.1 |
| 20260507144759 | 55 | 19 | 1.0 | 6.0 | 0.00 | 0.41 | 0.02 | 41 | 1018.3 |
| 20260507144706 | 55 | 5 | 1.0 | 5.0 | 0.00 | 0.41 | 0.02 | 41 | 1018.3 |
| 20260507144459 | 55 | 47 | 1.0 | 4.0 | 0.00 | 0.41 | 0.02 | 39 | 1018.1 |
| 20260507144417 | 55 | 47 | 1.0 | 4.0 | 0.00 | 0.41 | 0.02 | 39 | 1018.0 |
| 20260507144359 | 55 | 47 | 1.0 | 4.0 | 0.00 | 0.41 | 0.02 | 39 | 1018.0 |
| 20260507144259 | 55 | 47 | 2.0 | 4.0 | 0.00 | 0.41 | 0.02 | 38 | 1018.1 |
| 20260507144200 | 55 | 47 | 2.0 | 6.0 | 0.00 | 0.41 | 0.02 | 39 | 1018.1 |
| 20260507144100 | 55 | 47 | 2.0 | 6.0 | 0.00 | 0.41 | 0.02 | 39 | 1018.1 |
| 20260507143959 | 55 | 47 | 3.0 | 9.0 | 0.00 | 0.41 | 0.02 | 39 | 1018.1 |
| 20260507143918 | 55 | 47 | 3.0 | 9.0 | 0.00 | 0.41 | 0.02 | 39 | 1018.1 |
| 20260507143858 | 55 | 47 | 3.0 | 9.0 | 0.00 | 0.41 | 0.02 | 38 | 1018.1 |
| 20260507143759 | 55 | 5 | 3.0 | 9.0 | 0.00 | 0.41 | 0.02 | 38 | 1018.1 |
| 20260507143659 | 55 | 5 | 3.0 | 9.0 | 0.01 | 0.41 | 0.02 | 41 | 1018.3 |
| 20260507143559 | 55 | 329 | 3.0 | 9.0 | 0.01 | 0.41 | 0.02 | 40 | 1018.1 |
| 20260507143458 | 55 | 11 | 3.0 | 9.0 | 0.01 | 0.41 | 0.02 | 40 | 1018.3 |
| 20260507143419 | 55 | 15 | 3.0 | 9.0 | 0.01 | 0.41 | 0.02 | 40 | 1018.3 |
| 20260507143359 | 55 | 15 | 3.0 | 9.0 | 0.01 | 0.41 | 0.02 | 40 | 1018.3 |
| 20260507143259 | 55 | 44 | 3.0 | 9.0 | 0.01 | 0.41 | 0.02 | 40 | 1018.1 |
| 20260507143155 | 55 | 28 | 3.0 | 9.0 | 0.01 | 0.41 | 0.02 | 40 | 1018.1 |
| 20260507143055 | 55 | 5 | 3.0 | 9.0 | 0.01 | 0.41 | 0.02 | 39 | 1018.1 |
| 20260507142955 | 55 | 38 | 3.0 | 6.0 | 0.01 | 0.41 | 0.02 | 40 | 1018.1 |
| 20260507142918 | 55 | 54 | 3.0 | 6.0 | 0.01 | 0.41 | 0.02 | 41 | 1018.1 |
| 20260507142855 | 55 | 75 | 3.0 | 6.0 | 0.01 | 0.41 | 0.02 | 41 | 1018.1 |
| 20260507142755 | 54 | 75 | 3.0 | 6.0 | 0.01 | 0.41 | 0.02 | 41 | 1018.1 |
| 20260507142702 | 54 | 82 | 3.0 | 6.0 | 0.01 | 0.41 | 0.02 | 40 | 1018.1 |
| 20260507142455 | 54 | 107 | 2.0 | 6.0 | 0.01 | 0.41 | 0.02 | 40 | 1018.1 |
| 20260507142417 | 54 | 107 | 2.0 | 6.0 | 0.01 | 0.41 | 0.02 | 41 | 1018.0 |
| 20260507142355 | 54 | 107 | 2.0 | 6.0 | 0.01 | 0.41 | 0.02 | 41 | 1018.0 |
| 20260507142255 | 54 | 107 | 2.0 | 6.0 | 0.01 | 0.41 | 0.02 | 41 | 1018.0 |
| 20260507142154 | 54 | 118 | 2.0 | 6.0 | 0.01 | 0.41 | 0.02 | 41 | 1018.0 |
| 20260507142053 | 54 | 118 | 2.0 | 6.0 | 0.01 | 0.41 | 0.02 | 41 | 1018.0 |
| 20260507141954 | 54 | 103 | 2.0 | 6.0 | 0.01 | 0.41 | 0.02 | 40 | 1018.0 |
| 20260507141918 | 54 | 105 | 2.0 | 6.0 | 0.01 | 0.41 | 0.02 | 40 | 1018.0 |
| 20260507141858 | 54 | 108 | 2.0 | 7.0 | 0.01 | 0.41 | 0.02 | 40 | 1018.0 |
| 20260507141651 | 54 | 161 | 2.0 | 7.0 | 0.01 | 0.41 | 0.02 | 42 | 1018.0 |
| 20260507141551 | 54 | 348 | 2.0 | 7.0 | 0.01 | 0.41 | 0.02 | 39 | 1018.0 |
| 20260507141525 | 54 | 348 | 3.0 | 9.0 | 0.01 | 0.41 | 0.02 | 39 | 1018.0 |
| 20260507141351 | 54 | 348 | 3.0 | 12.0 | 0.01 | 0.41 | 0.02 | 39 | 1018.0 |
| 20260507141252 | 54 | 21 | 4.0 | 12.0 | 0.01 | 0.41 | 0.02 | 41 | 1018.0 |
| 20260507141151 | 53 | 144 | 4.0 | 12.0 | 0.01 | 0.41 | 0.02 | 40 | 1018.0 |
| 20260507141051 | 53 | 152 | 4.0 | 12.0 | 0.01 | 0.41 | 0.02 | 41 | 1018.0 |
| 20260507140950 | 53 | 153 | 4.0 | 12.0 | 0.01 | 0.41 | 0.02 | 39 | 1018.0 |
| 20260507140918 | 53 | 155 | 4.0 | 12.0 | 0.01 | 0.41 | 0.02 | 39 | 1018.0 |
| 20260507140852 | 53 | 155 | 4.0 | 12.0 | 0.01 | 0.41 | 0.02 | 40 | 1018.0 |
| 20260507140751 | 53 | 5 | 4.0 | 12.0 | 0.01 | 0.41 | 0.02 | 40 | 1018.0 |
| 20260507140651 | 53 | 331 | 4.0 | 12.0 | 0.01 | 0.41 | 0.02 | 41 | 1018.0 |
| 20260507140558 | 53 | 289 | 4.0 | 12.0 | 0.01 | 0.41 | 0.02 | 41 | 1018.0 |
| 20260507140417 | 53 | 238 | 3.0 | 10.0 | 0.01 | 0.41 | 0.02 | 43 | 1018.0 |
| 20260507140351 | 53 | 233 | 3.0 | 10.0 | 0.01 | 0.41 | 0.02 | 42 | 1018.0 |
| 20260507140251 | 52 | 227 | 3.0 | 10.0 | 0.01 | 0.41 | 0.02 | 43 | 1017.9 |
| 20260507140151 | 52 | 325 | 2.0 | 8.0 | 0.01 | 0.41 | 0.02 | 42 | 1018.0 |
| 20260507140048 | 52 | 309 | 2.0 | 9.0 | 0.01 | 0.41 | 0.02 | 43 | 1018.0 |
| 20260507135946 | 52 | 234 | 2.0 | 9.0 | 0.01 | 0.41 | 0.02 | 43 | 1018.0 |
| 20260507135919 | 52 | 234 | 2.0 | 9.0 | 0.01 | 0.41 | 0.02 | 42 | 1018.0 |
| 20260507135846 | 52 | 193 | 2.0 | 9.0 | 0.01 | 0.41 | 0.02 | 44 | 1017.9 |
| 20260507135754 | 52 | 204 | 3.0 | 9.0 | 0.01 | 0.41 | 0.02 | 45 | 1017.9 |
| 20260507135548 | 52 | 204 | 3.0 | 9.0 | 0.01 | 0.41 | 0.02 | 45 | 1017.9 |
| 20260507135448 | 52 | 204 | 3.0 | 9.0 | 0.01 | 0.41 | 0.02 | 44 | 1018.0 |
| 20260507135418 | 52 | 204 | 3.0 | 9.0 | 0.01 | 0.41 | 0.02 | 45 | 1018.0 |
| 20260507135347 | 52 | 204 | 3.0 | 9.0 | 0.01 | 0.41 | 0.02 | 45 | 1017.9 |
| 20260507135301 | 52 | 140 | 2.0 | 9.0 | 0.01 | 0.41 | 0.02 | 44 | 1017.9 |
| 20260507134948 | 52 | 101 | 2.0 | 6.0 | 0.01 | 0.41 | 0.02 | 42 | 1017.9 |
| 20260507134917 | 51 | 101 | 2.0 | 6.0 | 0.01 | 0.41 | 0.02 | 43 | 1017.9 |
| 20260507134855 | 51 | 101 | 2.0 | 6.0 | 0.01 | 0.41 | 0.02 | 43 | 1017.9 |
| 20260507134647 | 51 | 107 | 2.0 | 4.0 | 0.01 | 0.41 | 0.02 | 44 | 1017.9 |
| 20260507134547 | 51 | 190 | 2.0 | 4.0 | 0.01 | 0.41 | 0.02 | 45 | 1017.8 |
| 20260507134525 | 51 | 155 | 1.0 | 4.0 | 0.01 | 0.41 | 0.02 | 45 | 1017.8 |
| 20260507134347 | 51 | 154 | 1.0 | 4.0 | 0.01 | 0.41 | 0.02 | 46 | 1017.9 |
| 20260507134247 | 51 | 62 | 1.0 | 4.0 | 0.01 | 0.41 | 0.02 | 46 | 1017.9 |
| 20260507134142 | 51 | 62 | 2.0 | 4.0 | 0.01 | 0.41 | 0.02 | 46 | 1017.9 |
| 20260507134051 | 51 | 62 | 2.0 | 6.0 | 0.01 | 0.41 | 0.02 | 45 | 1017.9 |
| 20260507133918 | 51 | 25 | 2.0 | 7.0 | 0.01 | 0.41 | 0.02 | 44 | 1018.0 |
| 20260507133843 | 51 | 25 | 2.0 | 7.0 | 0.01 | 0.41 | 0.02 | 45 | 1018.0 |
| 20260507133743 | 51 | 25 | 2.0 | 7.0 | 0.01 | 0.41 | 0.02 | 46 | 1017.9 |
| 20260507133650 | 52 | 25 | 2.0 | 7.0 | 0.00 | 0.40 | 0.01 | 45 | 1017.9 |
| 20260507133443 | 52 | 165 | 2.0 | 7.0 | 0.00 | 0.40 | 0.01 | 45 | 1017.9 |
| 20260507133413 | 52 | 165 | 2.0 | 7.0 | 0.01 | 0.40 | 0.01 | 45 | 1017.9 |
| 20260507133343 | 52 | 165 | 2.0 | 7.0 | 0.01 | 0.40 | 0.01 | 44 | 1017.9 |
| 20260507133243 | 52 | 164 | 3.0 | 7.0 | 0.01 | 0.40 | 0.01 | 43 | 1017.9 |
| 20260507133143 | 52 | 198 | 3.0 | 7.0 | 0.01 | 0.40 | 0.01 | 44 | 1017.9 |
| 20260507133043 | 52 | 189 | 3.0 | 7.0 | 0.01 | 0.40 | 0.01 | 44 | 1017.8 |
| 20260507132914 | 52 | 127 | 3.0 | 7.0 | 0.01 | 0.40 | 0.01 | 45 | 1017.9 |
| 20260507132842 | 52 | 126 | 3.0 | 7.0 | 0.01 | 0.40 | 0.01 | 43 | 1017.9 |
| 20260507132743 | 52 | 110 | 3.0 | 9.0 | 0.01 | 0.40 | 0.01 | 43 | 1017.9 |
| 20260507132643 | 52 | 106 | 3.0 | 9.0 | 0.01 | 0.40 | 0.01 | 43 | 1017.9 |
| 20260507132549 | 52 | 84 | 3.0 | 9.0 | 0.01 | 0.40 | 0.01 | 43 | 1018.0 |
| 20260507132414 | 51 | 84 | 3.0 | 9.0 | 0.01 | 0.40 | 0.01 | 43 | 1018.0 |
| 20260507132344 | 51 | 84 | 4.0 | 15.0 | 0.01 | 0.40 | 0.01 | 43 | 1018.0 |
| 20260507132239 | 51 | 71 | 4.0 | 15.0 | 0.01 | 0.40 | 0.01 | 44 | 1018.1 |
| 20260507132139 | 51 | 40 | 4.0 | 15.0 | 0.01 | 0.40 | 0.01 | 44 | 1018.1 |
| 20260507132039 | 51 | 51 | 4.0 | 15.0 | 0.01 | 0.40 | 0.01 | 45 | 1018.0 |
| 20260507132021 | 51 | 43 | 4.0 | 15.0 | 0.01 | 0.40 | 0.01 | 44 | 1018.0 |
| 20260507131840 | 51 | 22 | 5.0 | 15.0 | 0.01 | 0.40 | 0.01 | 44 | 1017.9 |
| 20260507131739 | 51 | 78 | 5.0 | 15.0 | 0.01 | 0.40 | 0.01 | 44 | 1017.9 |
| 20260507131639 | 51 | 85 | 6.0 | 15.0 | 0.01 | 0.40 | 0.01 | 45 | 1017.9 |
| 20260507131540 | 51 | 87 | 6.0 | 15.0 | 0.01 | 0.40 | 0.01 | 44 | 1017.9 |
| 20260507131438 | 51 | 110 | 7.0 | 15.0 | 0.01 | 0.40 | 0.01 | 44 | 1017.9 |
| 20260507131413 | 50 | 113 | 7.0 | 15.0 | 0.01 | 0.40 | 0.01 | 44 | 1017.9 |
| 20260507131346 | 50 | 113 | 8.0 | 22.0 | 0.01 | 0.40 | 0.01 | 44 | 1017.8 |
| 20260507131145 | 50 | 211 | 9.0 | 22.0 | 0.01 | 0.40 | 0.01 | 45 | 1017.8 |
| 20260507130939 | 50 | 223 | 11.0 | 22.0 | 0.01 | 0.40 | 0.01 | 44 | 1017.7 |
| 20260507130915 | 50 | 238 | 11.0 | 22.0 | 0.01 | 0.40 | 0.01 | 44 | 1017.7 |
| 20260507130840 | 50 | 238 | 11.0 | 22.0 | 0.01 | 0.40 | 0.01 | 44 | 1017.5 |
| 20260507130753 | 50 | 232 | 11.0 | 22.0 | 0.01 | 0.40 | 0.01 | 45 | 1017.5 |
| 20260507130521 | 49 | 232 | 12.0 | 22.0 | 0.01 | 0.40 | 0.01 | 44 | 1017.4 |
| 20260507130340 | 49 | 241 | 11.0 | 20.0 | 0.01 | 0.40 | 0.01 | 45 | 1017.4 |
| 20260507130141 | 49 | 247 | 11.0 | 20.0 | 0.01 | 0.40 | 0.01 | 46 | 1017.5 |
| 20260507125933 | 49 | 250 | 11.0 | 19.0 | 0.01 | 0.40 | 0.01 | 46 | 1017.5 |
| 20260507125915 | 49 | 246 | 11.0 | 19.0 | 0.01 | 0.40 | 0.01 | 46 | 1017.5 |
| 20260507125828 | 49 | 234 | 11.0 | 19.0 | 0.01 | 0.40 | 0.01 | 46 | 1017.4 |
| 20260507125735 | 49 | 221 | 11.0 | 19.0 | 0.01 | 0.40 | 0.01 | 46 | 1017.5 |
| 20260507125528 | 48 | 284 | 12.0 | 21.0 | 0.01 | 0.40 | 0.01 | 46 | 1017.4 |
| 20260507125427 | 48 | 244 | 12.0 | 21.0 | 0.01 | 0.40 | 0.01 | 46 | 1017.4 |
| 20260507125414 | 48 | 252 | 12.0 | 21.0 | 0.01 | 0.40 | 0.01 | 46 | 1017.4 |
| 20260507125327 | 48 | 230 | 12.0 | 21.0 | 0.01 | 0.40 | 0.01 | 46 | 1017.4 |
| 20260507125227 | 48 | 268 | 13.0 | 25.0 | 0.01 | 0.40 | 0.01 | 46 | 1017.4 |
| 20260507125125 | 48 | 323 | 13.0 | 25.0 | 0.01 | 0.40 | 0.01 | 47 | 1017.5 |
| 20260507125028 | 48 | 291 | 14.0 | 25.0 | 0.01 | 0.40 | 0.01 | 47 | 1017.4 |
| 20260507125022 | 47 | 265 | 14.0 | 25.0 | 0.01 | 0.40 | 0.01 | 47 | 1017.4 |
| 20260507124824 | 47 | 0 | 15.0 | 25.0 | 0.01 | 0.40 | 0.01 | 47 | 1017.4 |
| 20260507124725 | 47 | 260 | 14.0 | 25.0 | 0.01 | 0.40 | 0.01 | 47 | 1017.4 |
| 20260507124625 | 47 | 250 | 14.0 | 25.0 | 0.01 | 0.40 | 0.01 | 47 | 1017.4 |
| 20260507124533 | 47 | 243 | 14.0 | 25.0 | 0.01 | 0.40 | 0.01 | 48 | 1017.4 |
| 20260507124414 | 47 | 247 | 14.0 | 25.0 | 0.01 | 0.40 | 0.01 | 48 | 1017.3 |
| 20260507124325 | 46 | 250 | 14.0 | 25.0 | 0.01 | 0.40 | 0.01 | 48 | 1017.4 |
| 20260507124232 | 46 | 252 | 13.0 | 24.0 | 0.01 | 0.40 | 0.01 | 49 | 1017.4 |
| 20260507124024 | 46 | 250 | 12.0 | 24.0 | 0.01 | 0.40 | 0.01 | 49 | 1017.5 |
| 20260507123921 | 46 | 241 | 12.0 | 24.0 | 0.01 | 0.40 | 0.01 | 49 | 1017.4 |
| 20260507123914 | 46 | 254 | 12.0 | 24.0 | 0.01 | 0.40 | 0.01 | 49 | 1017.4 |
| 20260507123819 | 46 | 231 | 11.0 | 24.0 | 0.01 | 0.40 | 0.01 | 50 | 1017.4 |
| 20260507123720 | 46 | 217 | 10.0 | 24.0 | 0.01 | 0.40 | 0.01 | 49 | 1017.4 |
| 20260507123619 | 46 | 245 | 10.0 | 24.0 | 0.01 | 0.40 | 0.01 | 49 | 1017.4 |
| 20260507123517 | 46 | 244 | 9.0 | 24.0 | 0.01 | 0.40 | 0.01 | 49 | 1017.5 |
| 20260507123411 | 46 | 252 | 8.0 | 24.0 | 0.00 | 0.39 | 0.01 | 49 | 1017.5 |
| 20260507123310 | 46 | 238 | 8.0 | 20.0 | 0.00 | 0.39 | 0.00 | 49 | 1017.5 |
| 20260507123212 | 46 | 231 | 8.0 | 20.0 | 0.00 | 0.39 | 0.00 | 49 | 1017.5 |
| 20260507123111 | 46 | 246 | 8.0 | 20.0 | 0.00 | 0.39 | 0.00 | 49 | 1017.5 |
| 20260507123011 | 45 | 264 | 8.0 | 18.0 | 0.00 | 0.39 | 0.00 | 50 | 1017.5 |
| 20260507122911 | 45 | 234 | 7.0 | 15.0 | 0.00 | 0.39 | 0.00 | 49 | 1017.5 |
| 20260507122906 | 46 | 234 | 7.0 | 15.0 | 0.00 | 0.39 | 0.00 | 50 | 1017.5 |
| 20260507122804 | 45 | 206 | 8.0 | 15.0 | 0.00 | 0.39 | 0.00 | 50 | 1017.5 |
| 20260507122705 | 46 | 182 | 7.0 | 15.0 | 0.00 | 0.39 | 0.00 | 49 | 1017.7 |
| 20260507122604 | 46 | 256 | 7.0 | 15.0 | 0.00 | 0.39 | 0.00 | 49 | 1017.5 |
| 20260507122504 | 46 | 213 | 7.0 | 16.0 | 0.00 | 0.39 | 0.00 | 49 | 1017.5 |
| 20260507122412 | 46 | 239 | 8.0 | 19.0 | 0.00 | 0.39 | 0.00 | 49 | 1017.5 |
| 20260507122358 | 46 | 211 | 8.0 | 19.0 | 0.00 | 0.39 | 0.00 | 49 | 1017.5 |
| 20260507122258 | 46 | 236 | 9.0 | 19.0 | 0.00 | 0.39 | 0.00 | 49 | 1017.5 |
| 20260507122157 | 46 | 228 | 9.0 | 22.0 | 0.00 | 0.39 | 0.00 | 49 | 1017.5 |
| 20260507122058 | 46 | 240 | 10.0 | 22.0 | 0.00 | 0.39 | 0.00 | 49 | 1017.5 |
| 20260507121957 | 46 | 202 | 10.0 | 22.0 | 0.00 | 0.39 | 0.00 | 49 | 1017.7 |
| 20260507121911 | 46 | 257 | 10.0 | 22.0 | 0.00 | 0.39 | 0.00 | 49 | 1017.7 |
| 20260507121858 | 46 | 229 | 11.0 | 22.0 | 0.00 | 0.39 | 0.00 | 49 | 1017.7 |
| 20260507121651 | 46 | 253 | 12.0 | 22.0 | 0.00 | 0.39 | 0.00 | 48 | 1017.7 |
| 20260507121550 | 46 | 277 | 12.0 | 22.0 | 0.00 | 0.39 | 0.00 | 48 | 1017.7 |
| 20260507121449 | 46 | 239 | 11.0 | 22.0 | 0.00 | 0.39 | 0.00 | 48 | 1017.7 |
| 20260507121411 | 46 | 250 | 11.0 | 22.0 | 0.00 | 0.39 | 0.00 | 49 | 1017.7 |
| 20260507121346 | 46 | 213 | 11.0 | 22.0 | 0.00 | 0.39 | 0.00 | 48 | 1017.7 |
| 20260507121244 | 46 | 244 | 11.0 | 22.0 | 0.00 | 0.39 | 0.00 | 49 | 1017.7 |
| 20260507121144 | 46 | 240 | 11.0 | 19.0 | 0.00 | 0.39 | 0.00 | 49 | 1017.5 |
| 20260507121042 | 46 | 229 | 11.0 | 19.0 | 0.00 | 0.39 | 0.00 | 49 | 1017.5 |
| 20260507120949 | 46 | 249 | 11.0 | 19.0 | 0.00 | 0.39 | 0.00 | 49 | 1017.5 |
| 20260507120941 | 46 | 258 | 11.0 | 19.0 | 0.00 | 0.39 | 0.00 | 49 | 1017.5 |
| 20260507120737 | 46 | 244 | 11.0 | 19.0 | 0.00 | 0.39 | 0.00 | 49 | 1017.5 |
| 20260507120636 | 45 | 269 | 11.0 | 19.0 | 0.00 | 0.39 | 0.00 | 49 | 1017.5 |
| 20260507120549 | 45 | 317 | 11.0 | 19.0 | 0.00 | 0.39 | 0.00 | 49 | 1017.5 |
| 20260507120542 | 45 | 287 | 11.0 | 19.0 | 0.00 | 0.39 | 0.00 | 49 | 1017.5 |
| 20260507120229 | 45 | 255 | 11.0 | 19.0 | 0.00 | 0.39 | 0.00 | 49 | 1017.5 |
| 20260507120130 | 45 | 238 | 12.0 | 19.0 | 0.00 | 0.39 | 0.00 | 49 | 1017.5 |
| 20260507120028 | 45 | 292 | 11.0 | 19.0 | 0.00 | 0.39 | 0.00 | 49 | 1017.5 |
| 20260507115927 | 45 | 258 | 11.0 | 19.0 | 0.00 | 0.39 | 0.00 | 49 | 1017.4 |
| 20260507115910 | 45 | 266 | 11.0 | 19.0 | 0.00 | 0.39 | 0.00 | 49 | 1017.4 |
| 20260507115828 | 45 | 234 | 10.0 | 19.0 | 0.00 | 0.39 | 0.00 | 49 | 1017.4 |
| 20260507115735 | 45 | 240 | 10.0 | 18.0 | 0.00 | 0.39 | 0.00 | 50 | 1017.5 |
| 20260507115527 | 44 | 248 | 8.0 | 17.0 | 0.00 | 0.39 | 0.00 | 50 | 1017.5 |
| 20260507115428 | 44 | 228 | 8.0 | 17.0 | 0.00 | 0.39 | 0.00 | 50 | 1017.4 |
| 20260507115408 | 44 | 229 | 8.0 | 17.0 | 0.00 | 0.39 | 0.00 | 50 | 1017.4 |
| 20260507115328 | 44 | 286 | 7.0 | 17.0 | 0.00 | 0.39 | 0.00 | 51 | 1017.5 |
| 20260507115229 | 44 | 265 | 6.0 | 17.0 | 0.00 | 0.39 | 0.00 | 51 | 1017.4 |
| 20260507115135 | 44 | 232 | 5.0 | 16.0 | 0.00 | 0.39 | 0.00 | 51 | 1017.4 |
| 20260507114939 | 44 | 266 | 4.0 | 12.0 | 0.00 | 0.39 | 0.00 | 51 | 1017.5 |
| 20260507114933 | 44 | 259 | 4.0 | 12.0 | 0.00 | 0.39 | 0.00 | 51 | 1017.5 |
| 20260507114727 | 44 | 284 | 4.0 | 10.0 | 0.00 | 0.39 | 0.00 | 52 | 1017.4 |
| 20260507114625 | 44 | 252 | 4.0 | 10.0 | 0.00 | 0.39 | 0.00 | 52 | 1017.5 |
| 20260507114526 | 44 | 219 | 4.0 | 10.0 | 0.00 | 0.39 | 0.00 | 52 | 1017.7 |
| 20260507114427 | 44 | 198 | 4.0 | 10.0 | 0.00 | 0.39 | 0.00 | 52 | 1017.5 |
| 20260507114403 | 44 | 242 | 4.0 | 10.0 | 0.00 | 0.39 | 0.00 | 52 | 1017.5 |
| 20260507114331 | 44 | 206 | 4.0 | 12.0 | 0.00 | 0.39 | 0.00 | 52 | 1017.5 |
| 20260507114016 | 44 | 259 | 4.0 | 12.0 | 0.00 | 0.39 | 0.00 | 52 | 1017.5 |
| 20260507113928 | 44 | 161 | 5.0 | 14.0 | 0.00 | 0.39 | 0.00 | 52 | 1017.5 |
| 20260507113920 | 44 | 198 | 5.0 | 14.0 | 0.00 | 0.39 | 0.00 | 52 | 1017.5 |
| 20260507113717 | 44 | 256 | 6.0 | 14.0 | 0.00 | 0.39 | 0.00 | 51 | 1017.7 |
| 20260507113511 | 44 | 244 | 6.0 | 14.0 | 0.00 | 0.39 | 0.00 | 51 | 1017.7 |
| 20260507113410 | 44 | 205 | 6.0 | 14.0 | 0.00 | 0.39 | 0.00 | 51 | 1017.5 |
| 20260507113403 | 44 | 192 | 6.0 | 14.0 | 0.00 | 0.39 | 0.00 | 51 | 1017.5 |
| 20260507113310 | 44 | 234 | 6.0 | 14.0 | 0.00 | 0.39 | 0.00 | 51 | 1017.5 |
| 20260507113210 | 44 | 196 | 6.0 | 14.0 | 0.00 | 0.39 | 0.00 | 50 | 1017.5 |
| 20260507113103 | 44 | 211 | 6.0 | 14.0 | 0.00 | 0.39 | 0.00 | 50 | 1017.7 |
| 20260507113004 | 44 | 211 | 6.0 | 14.0 | 0.00 | 0.39 | 0.00 | 50 | 1017.5 |
| 20260507112904 | 44 | 240 | 6.0 | 14.0 | 0.00 | 0.39 | 0.00 | 50 | 1017.5 |
| 20260507112804 | 44 | 251 | 5.0 | 14.0 | 0.00 | 0.39 | 0.00 | 50 | 1017.5 |
| 20260507112703 | 44 | 223 | 5.0 | 14.0 | 0.00 | 0.39 | 0.00 | 49 | 1017.5 |
| 20260507112600 | 44 | 258 | 5.0 | 11.0 | 0.00 | 0.39 | 0.00 | 50 | 1017.5 |
| 20260507112500 | 44 | 246 | 5.0 | 11.0 | 0.00 | 0.39 | 0.00 | 49 | 1017.5 |
| 20260507112417 | 44 | 212 | 5.0 | 11.0 | 0.00 | 0.39 | 0.00 | 50 | 1017.5 |
| 20260507112413 | 44 | 217 | 5.0 | 11.0 | 0.00 | 0.39 | 0.00 | 50 | 1017.5 |
| 20260507111952 | 44 | 238 | 5.0 | 11.0 | 0.00 | 0.39 | 0.00 | 50 | 1017.5 |
| 20260507111901 | 44 | 198 | 4.0 | 11.0 | 0.00 | 0.39 | 0.00 | 50 | 1017.5 |
| 20260507111852 | 44 | 209 | 4.0 | 11.0 | 0.00 | 0.39 | 0.00 | 50 | 1017.4 |
| 20260507111759 | 44 | 210 | 4.0 | 11.0 | 0.00 | 0.39 | 0.00 | 50 | 1017.4 |
| 20260507111549 | 44 | 235 | 4.0 | 11.0 | 0.00 | 0.39 | 0.00 | 50 | 1017.4 |
| 20260507111450 | 44 | 221 | 3.0 | 11.0 | 0.00 | 0.39 | 0.00 | 50 | 1017.4 |
| 20260507111401 | 44 | 249 | 3.0 | 11.0 | 0.00 | 0.39 | 0.00 | 50 | 1017.4 |
| 20260507111351 | 44 | 299 | 3.0 | 11.0 | 0.00 | 0.39 | 0.00 | 50 | 1017.4 |
| 20260507111248 | 44 | 299 | 3.0 | 11.0 | 0.00 | 0.39 | 0.00 | 49 | 1017.4 |
| 20260507111147 | 43 | 270 | 3.0 | 9.0 | 0.00 | 0.39 | 0.00 | 51 | 1017.4 |
| 20260507111040 | 43 | 212 | 3.0 | 7.0 | 0.00 | 0.39 | 0.00 | 50 | 1017.4 |
| 20260507111009 | 43 | 240 | 3.0 | 7.0 | 0.00 | 0.39 | 0.00 | 51 | 1017.4 |
| 20260507110840 | 43 | 242 | 3.0 | 6.0 | 0.00 | 0.39 | 0.00 | 51 | 1017.4 |
| 20260507110746 | 43 | 234 | 3.0 | 7.0 | 0.00 | 0.39 | 0.00 | 51 | 1017.4 |
| 20260507110536 | 44 | 213 | 4.0 | 9.0 | 0.00 | 0.39 | 0.00 | 52 | 1017.3 |
| 20260507110436 | 44 | 200 | 4.0 | 11.0 | 0.00 | 0.39 | 0.00 | 53 | 1017.3 |
| 20260507110402 | 44 | 192 | 4.0 | 11.0 | 0.00 | 0.39 | 0.00 | 52 | 1017.3 |
| 20260507110336 | 44 | 198 | 4.0 | 11.0 | 0.00 | 0.39 | 0.00 | 52 | 1017.4 |
| 20260507110236 | 44 | 185 | 4.0 | 11.0 | 0.00 | 0.39 | 0.00 | 52 | 1017.3 |
| 20260507110133 | 44 | 200 | 5.0 | 11.0 | 0.00 | 0.39 | 0.00 | 51 | 1017.4 |
| 20260507110027 | 44 | 238 | 5.0 | 11.0 | 0.00 | 0.39 | 0.00 | 51 | 1017.4 |
| 20260507105927 | 44 | 225 | 5.0 | 11.0 | 0.00 | 0.39 | 0.00 | 51 | 1017.4 |
| 20260507105901 | 44 | 221 | 5.0 | 11.0 | 0.00 | 0.39 | 0.00 | 51 | 1017.4 |
| 20260507105828 | 44 | 205 | 5.0 | 11.0 | 0.00 | 0.39 | 0.00 | 50 | 1017.3 |
| 20260507105728 | 44 | 247 | 5.0 | 11.0 | 0.00 | 0.39 | 0.00 | 51 | 1017.3 |
| 20260507105657 | 43 | 208 | 5.0 | 11.0 | 0.00 | 0.39 | 0.00 | 51 | 1017.3 |
| 20260507105650 | 43 | 228 | 4.0 | 11.0 | 0.00 | 0.39 | 0.00 | 51 | 1017.3 |
| 20260507105121 | 43 | 213 | 4.0 | 11.0 | 0.00 | 0.39 | 0.00 | 51 | 1017.3 |
| 20260507105018 | 43 | 234 | 4.0 | 11.0 | 0.00 | 0.39 | 0.00 | 52 | 1017.3 |
| 20260507104917 | 43 | 223 | 4.0 | 11.0 | 0.00 | 0.39 | 0.00 | 52 | 1017.3 |
| 20260507104859 | 43 | 209 | 4.0 | 11.0 | 0.00 | 0.39 | 0.00 | 52 | 1017.3 |
| 20260507104818 | 43 | 217 | 4.0 | 10.0 | 0.00 | 0.39 | 0.00 | 52 | 1017.3 |
| 20260507104722 | 43 | 192 | 5.0 | 10.0 | 0.00 | 0.39 | 0.00 | 52 | 1017.4 |
| 20260507104515 | 43 | 224 | 5.0 | 10.0 | 0.00 | 0.39 | 0.00 | 52 | 1017.4 |
| 20260507104508 | 43 | 248 | 5.0 | 10.0 | 0.00 | 0.39 | 0.00 | 52 | 1017.5 |
| 20260507104310 | 43 | 226 | 5.0 | 10.0 | 0.00 | 0.39 | 0.00 | 52 | 1017.5 |
| 20260507104210 | 42 | 231 | 5.0 | 10.0 | 0.00 | 0.39 | 0.00 | 52 | 1017.7 |
| 20260507104109 | 42 | 232 | 5.0 | 10.0 | 0.00 | 0.39 | 0.00 | 53 | 1017.7 |
| 20260507104021 | 42 | 188 | 5.0 | 10.0 | 0.00 | 0.39 | 0.00 | 54 | 1017.7 |
| 20260507103908 | 42 | 223 | 4.0 | 10.0 | 0.00 | 0.39 | 0.00 | 54 | 1017.7 |
| 20260507103704 | 42 | 214 | 4.0 | 9.0 | 0.00 | 0.39 | 0.00 | 54 | 1017.7 |
| 20260507103604 | 42 | 231 | 3.0 | 7.0 | 0.00 | 0.39 | 0.00 | 54 | 1017.7 |
| 20260507103458 | 42 | 205 | 3.0 | 7.0 | 0.00 | 0.39 | 0.00 | 54 | 1017.7 |
| 20260507103358 | 42 | 195 | 3.0 | 7.0 | 0.00 | 0.39 | 0.00 | 54 | 1017.8 |
| 20260507103257 | 42 | 208 | 3.0 | 9.0 | 0.00 | 0.39 | 0.00 | 53 | 1017.7 |
| 20260507103204 | 42 | 230 | 3.0 | 9.0 | 0.00 | 0.39 | 0.00 | 53 | 1017.7 |
| 20260507102901 | 43 | 209 | 4.0 | 9.0 | 0.00 | 0.39 | 0.00 | 53 | 1017.7 |
| 20260507102857 | 43 | 217 | 4.0 | 9.0 | 0.00 | 0.39 | 0.00 | 53 | 1017.7 |
| 20260507102651 | 43 | 211 | 4.0 | 9.0 | 0.00 | 0.39 | 0.00 | 53 | 1017.7 |
| 20260507102550 | 43 | 196 | 4.0 | 9.0 | 0.00 | 0.39 | 0.00 | 52 | 1017.7 |
| 20260507102444 | 43 | 234 | 4.0 | 9.0 | 0.00 | 0.39 | 0.00 | 52 | 1017.7 |
| 20260507102359 | 42 | 223 | 4.0 | 9.0 | 0.00 | 0.39 | 0.00 | 52 | 1017.7 |
| 20260507102344 | 42 | 210 | 3.0 | 8.0 | 0.00 | 0.39 | 0.00 | 52 | 1017.7 |
| 20260507102247 | 42 | 212 | 3.0 | 8.0 | 0.00 | 0.39 | 0.00 | 52 | 1017.7 |
| 20260507102039 | 42 | 216 | 3.0 | 15.0 | 0.00 | 0.39 | 0.00 | 53 | 1017.7 |
| 20260507101954 | 42 | 213 | 3.0 | 15.0 | 0.00 | 0.39 | 0.00 | 52 | 1017.8 |
| 20260507101948 | 42 | 238 | 3.0 | 15.0 | 0.00 | 0.39 | 0.00 | 53 | 1017.8 |
| 20260507101634 | 42 | 227 | 3.0 | 15.0 | 0.00 | 0.39 | 0.00 | 53 | 1017.8 |
| 20260507101536 | 42 | 232 | 3.0 | 15.0 | 0.00 | 0.39 | 0.00 | 54 | 1017.8 |
| 20260507101353 | 42 | 208 | 4.0 | 15.0 | 0.00 | 0.39 | 0.00 | 54 | 1017.9 |
| 20260507101329 | 42 | 215 | 4.0 | 15.0 | 0.00 | 0.39 | 0.00 | 54 | 1017.9 |
| 20260507101228 | 42 | 221 | 4.0 | 15.0 | 0.00 | 0.39 | 0.00 | 55 | 1017.8 |
| 20260507101128 | 42 | 197 | 4.0 | 15.0 | 0.00 | 0.39 | 0.00 | 55 | 1017.8 |
| 20260507101028 | 41 | 168 | 4.0 | 9.0 | 0.00 | 0.39 | 0.00 | 56 | 1017.8 |
| 20260507100953 | 41 | 196 | 4.0 | 9.0 | 0.00 | 0.39 | 0.00 | 56 | 1017.9 |
| 20260507100827 | 41 | 180 | 4.0 | 13.0 | 0.00 | 0.39 | 0.00 | 55 | 1017.9 |
| 20260507100728 | 41 | 246 | 4.0 | 13.0 | 0.00 | 0.39 | 0.00 | 56 | 1017.9 |
| 20260507100624 | 41 | 246 | 4.0 | 13.0 | 0.00 | 0.39 | 0.00 | 57 | 1017.9 |
| 20260507100522 | 41 | 196 | 4.0 | 13.0 | 0.00 | 0.39 | 0.00 | 56 | 1017.9 |
| 20260507100419 | 41 | 222 | 4.0 | 13.0 | 0.00 | 0.39 | 0.00 | 57 | 1017.8 |
| 20260507100339 | 41 | 190 | 4.0 | 13.0 | 0.00 | 0.39 | 0.00 | 58 | 1017.7 |
| 20260507100317 | 41 | 167 | 4.0 | 13.0 | 0.00 | 0.39 | 0.00 | 58 | 1017.7 |
| 20260507100217 | 41 | 191 | 3.0 | 13.0 | 0.00 | 0.39 | 0.00 | 58 | 1017.7 |
| 20260507100117 | 40 | 182 | 3.0 | 13.0 | 0.00 | 0.39 | 0.00 | 58 | 1017.7 |
| 20260507100046 | 40 | 200 | 3.0 | 13.0 | 0.00 | 0.39 | 0.00 | 58 | 1017.7 |
| 20260507095811 | 41 | 215 | 3.0 | 8.0 | 0.00 | 0.39 | 0.00 | 57 | 1017.8 |
| 20260507095710 | 41 | 220 | 3.0 | 8.0 | 0.00 | 0.39 | 0.00 | 58 | 1017.7 |
| 20260507095610 | 41 | 201 | 3.0 | 8.0 | 0.00 | 0.39 | 0.00 | 57 | 1017.7 |
| 20260507095511 | 41 | 201 | 3.0 | 8.0 | 0.00 | 0.39 | 0.00 | 57 | 1017.7 |
| 20260507095406 | 41 | 199 | 3.0 | 8.0 | 0.00 | 0.39 | 0.00 | 57 | 1017.7 |
| 20260507095306 | 41 | 171 | 3.0 | 8.0 | 0.00 | 0.39 | 0.00 | 57 | 1017.7 |
| 20260507095205 | 41 | 171 | 3.0 | 8.0 | 0.00 | 0.39 | 0.00 | 56 | 1017.7 |
| 20260507095105 | 41 | 171 | 3.0 | 8.0 | 0.00 | 0.39 | 0.00 | 56 | 1017.7 |
| 20260507095006 | 41 | 171 | 3.0 | 8.0 | 0.00 | 0.39 | 0.00 | 56 | 1017.7 |
| 20260507094821 | 42 | 187 | 3.0 | 8.0 | 0.00 | 0.39 | 0.00 | 55 | 1017.5 |
| 20260507094759 | 42 | 187 | 3.0 | 8.0 | 0.00 | 0.39 | 0.00 | 55 | 1017.5 |
| 20260507094659 | 42 | 214 | 3.0 | 8.0 | 0.00 | 0.39 | 0.00 | 55 | 1017.7 |
| 20260507094558 | 42 | 188 | 2.0 | 8.0 | 0.00 | 0.39 | 0.00 | 54 | 1017.5 |
| 20260507094459 | 42 | 198 | 2.0 | 8.0 | 0.00 | 0.39 | 0.00 | 54 | 1017.5 |
| 20260507094353 | 42 | 163 | 2.0 | 8.0 | 0.00 | 0.39 | 0.00 | 54 | 1017.7 |
| 20260507094317 | 42 | 163 | 3.0 | 8.0 | 0.00 | 0.39 | 0.00 | 55 | 1017.7 |
| 20260507094252 | 42 | 163 | 3.0 | 8.0 | 0.00 | 0.39 | 0.00 | 55 | 1017.7 |
| 20260507094152 | 42 | 163 | 3.0 | 8.0 | 0.00 | 0.39 | 0.00 | 54 | 1017.7 |
| 20260507094059 | 42 | 163 | 3.0 | 11.0 | 0.00 | 0.39 | 0.00 | 54 | 1017.5 |
| 20260507093846 | 42 | 216 | 4.0 | 11.0 | 0.00 | 0.39 | 0.00 | 53 | 1017.5 |
| 20260507093810 | 42 | 185 | 4.0 | 11.0 | 0.00 | 0.39 | 0.00 | 53 | 1017.5 |
| 20260507093747 | 42 | 185 | 4.0 | 11.0 | 0.00 | 0.39 | 0.00 | 53 | 1017.5 |
| 20260507093647 | 43 | 225 | 4.0 | 11.0 | 0.00 | 0.39 | 0.00 | 53 | 1017.7 |
| 20260507093547 | 43 | 223 | 4.0 | 11.0 | 0.00 | 0.39 | 0.00 | 53 | 1017.7 |
| 20260507093447 | 43 | 227 | 4.0 | 11.0 | 0.00 | 0.39 | 0.00 | 53 | 1017.7 |
| 20260507093341 | 43 | 203 | 5.0 | 11.0 | 0.00 | 0.39 | 0.00 | 53 | 1017.7 |
| 20260507093303 | 42 | 202 | 5.0 | 11.0 | 0.00 | 0.39 | 0.00 | 53 | 1017.7 |
| 20260507093242 | 42 | 192 | 5.0 | 11.0 | 0.00 | 0.39 | 0.00 | 53 | 1017.8 |
| 20260507093141 | 42 | 230 | 5.0 | 11.0 | 0.00 | 0.39 | 0.00 | 52 | 1017.8 |
| 20260507093040 | 42 | 272 | 5.0 | 10.0 | 0.00 | 0.39 | 0.00 | 52 | 1017.8 |
| 20260507092940 | 42 | 215 | 4.0 | 10.0 | 0.00 | 0.39 | 0.00 | 53 | 1017.8 |
| 20260507092836 | 42 | 184 | 4.0 | 10.0 | 0.00 | 0.39 | 0.00 | 53 | 1017.7 |
| 20260507092759 | 42 | 153 | 4.0 | 10.0 | 0.00 | 0.39 | 0.00 | 53 | 1017.7 |
| 20260507092735 | 42 | 243 | 5.0 | 10.0 | 0.00 | 0.39 | 0.00 | 53 | 1017.8 |
| 20260507092634 | 42 | 234 | 4.0 | 10.0 | 0.00 | 0.39 | 0.00 | 53 | 1017.7 |
| 20260507092535 | 42 | 215 | 4.0 | 8.0 | 0.00 | 0.39 | 0.00 | 53 | 1017.7 |
| 20260507092434 | 42 | 213 | 4.0 | 8.0 | 0.00 | 0.39 | 0.00 | 53 | 1017.8 |
| 20260507092341 | 43 | 207 | 4.0 | 12.0 | 0.00 | 0.39 | 0.00 | 53 | 1017.8 |
| 20260507092335 | 43 | 188 | 5.0 | 12.0 | 0.00 | 0.39 | 0.00 | 53 | 1017.7 |
| 20260507092135 | 43 | 170 | 5.0 | 12.0 | 0.00 | 0.39 | 0.00 | 52 | 1017.8 |
| 20260507091928 | 43 | 207 | 6.0 | 17.0 | 0.00 | 0.39 | 0.00 | 52 | 1017.8 |
| 20260507091822 | 43 | 208 | 6.0 | 17.0 | 0.00 | 0.39 | 0.00 | 52 | 1017.8 |
| 20260507091746 | 43 | 192 | 6.0 | 17.0 | 0.00 | 0.39 | 0.00 | 51 | 1017.9 |
| 20260507091722 | 43 | 198 | 6.0 | 17.0 | 0.00 | 0.39 | 0.00 | 51 | 1017.9 |
| 20260507091622 | 43 | 214 | 7.0 | 17.0 | 0.00 | 0.39 | 0.00 | 51 | 1017.8 |
| 20260507091522 | 43 | 241 | 8.0 | 17.0 | 0.00 | 0.39 | 0.00 | 51 | 1017.8 |
| 20260507091453 | 43 | 238 | 8.0 | 22.0 | 0.00 | 0.39 | 0.00 | 51 | 1017.8 |
| 20260507091217 | 43 | 195 | 8.0 | 22.0 | 0.00 | 0.39 | 0.00 | 51 | 1017.9 |
| 20260507091118 | 43 | 244 | 7.0 | 22.0 | 0.00 | 0.39 | 0.00 | 51 | 1017.9 |
| 20260507091018 | 43 | 245 | 6.0 | 22.0 | 0.00 | 0.39 | 0.00 | 52 | 1017.8 |
| 20260507090916 | 43 | 207 | 6.0 | 22.0 | 0.00 | 0.39 | 0.00 | 52 | 1017.8 |
| 20260507090840 | 42 | 248 | 6.0 | 22.0 | 0.00 | 0.39 | 0.00 | 52 | 1017.7 |
| 20260507090711 | 42 | 227 | 6.0 | 22.0 | 0.00 | 0.39 | 0.00 | 52 | 1017.8 |
| 20260507090611 | 42 | 232 | 6.0 | 22.0 | 0.00 | 0.39 | 0.00 | 52 | 1017.8 |
| 20260507090512 | 42 | 237 | 5.0 | 18.0 | 0.00 | 0.39 | 0.00 | 52 | 1017.7 |
| 20260507090410 | 41 | 226 | 4.0 | 17.0 | 0.00 | 0.39 | 0.00 | 52 | 1017.9 |
| 20260507090305 | 41 | 252 | 4.0 | 13.0 | 0.00 | 0.39 | 0.00 | 53 | 1017.9 |
| 20260507090228 | 41 | 314 | 4.0 | 13.0 | 0.00 | 0.39 | 0.00 | 53 | 1017.9 |
| 20260507090205 | 41 | 244 | 4.0 | 13.0 | 0.00 | 0.39 | 0.00 | 53 | 1017.9 |
| 20260507090105 | 40 | 306 | 4.0 | 13.0 | 0.00 | 0.39 | 0.00 | 55 | 1017.8 |
| 20260507090006 | 40 | 142 | 4.0 | 13.0 | 0.00 | 0.39 | 0.00 | 55 | 1017.8 |
| 20260507085904 | 40 | 196 | 3.0 | 13.0 | 0.00 | 0.39 | 0.00 | 55 | 1017.8 |
| 20260507085802 | 40 | 240 | 3.0 | 13.0 | 0.00 | 0.39 | 0.00 | 55 | 1017.9 |
| 20260507085722 | 40 | 244 | 3.0 | 9.0 | 0.00 | 0.39 | 0.00 | 55 | 1017.9 |
| 20260507085702 | 40 | 188 | 3.0 | 9.0 | 0.00 | 0.39 | 0.00 | 56 | 1017.9 |
| 20260507085603 | 40 | 187 | 2.0 | 9.0 | 0.00 | 0.39 | 0.00 | 56 | 1017.9 |
| 20260507085502 | 40 | 163 | 2.0 | 9.0 | 0.00 | 0.39 | 0.00 | 56 | 1018.0 |
| 20260507085358 | 40 | 163 | 2.0 | 9.0 | 0.00 | 0.39 | 0.00 | 57 | 1018.1 |
| 20260507085257 | 40 | 163 | 2.0 | 9.0 | 0.00 | 0.39 | 0.00 | 56 | 1018.0 |
| 20260507085216 | 40 | 270 | 2.0 | 9.0 | 0.00 | 0.39 | 0.00 | 56 | 1018.0 |
| 20260507085157 | 40 | 270 | 2.0 | 9.0 | 0.00 | 0.39 | 0.00 | 55 | 1018.0 |
| 20260507085056 | 40 | 355 | 2.0 | 5.0 | 0.00 | 0.39 | 0.00 | 55 | 1018.1 |
| 20260507084955 | 40 | 196 | 2.0 | 6.0 | 0.00 | 0.39 | 0.00 | 55 | 1018.0 |
| 20260507084853 | 40 | 196 | 3.0 | 7.0 | 0.00 | 0.39 | 0.00 | 56 | 1017.9 |
| 20260507084710 | 40 | 123 | 3.0 | 7.0 | 0.00 | 0.39 | 0.00 | 55 | 1017.8 |
| 20260507084647 | 40 | 103 | 3.0 | 7.0 | 0.00 | 0.39 | 0.00 | 54 | 1017.9 |
| 20260507084547 | 39 | 329 | 3.0 | 7.0 | 0.00 | 0.39 | 0.00 | 53 | 1017.9 |
| 20260507084446 | 40 | 328 | 3.0 | 7.0 | 0.00 | 0.39 | 0.00 | 54 | 1017.9 |
| 20260507084346 | 40 | 259 | 3.0 | 7.0 | 0.00 | 0.39 | 0.00 | 55 | 1017.9 |
| 20260507084240 | 40 | 259 | 3.0 | 7.0 | 0.00 | 0.39 | 0.00 | 54 | 1017.9 |
| 20260507084204 | 40 | 259 | 3.0 | 7.0 | 0.00 | 0.39 | 0.00 | 54 | 1017.9 |
| 20260507084141 | 40 | 259 | 3.0 | 7.0 | 0.00 | 0.39 | 0.00 | 55 | 1017.8 |
| 20260507084041 | 40 | 145 | 3.0 | 7.0 | 0.00 | 0.39 | 0.00 | 54 | 1017.8 |
| 20260507083940 | 40 | 97 | 3.0 | 6.0 | 0.00 | 0.39 | 0.00 | 54 | 1017.8 |
| 20260507083840 | 40 | 94 | 2.0 | 5.0 | 0.00 | 0.39 | 0.00 | 53 | 1017.8 |
| 20260507083737 | 40 | 90 | 2.0 | 5.0 | 0.00 | 0.39 | 0.00 | 53 | 1017.8 |
| 20260507083657 | 40 | 62 | 2.0 | 5.0 | 0.00 | 0.39 | 0.00 | 53 | 1017.8 |
| 20260507083637 | 40 | 62 | 3.0 | 5.0 | 0.00 | 0.39 | 0.00 | 53 | 1017.8 |
| 20260507083536 | 40 | 62 | 3.0 | 6.0 | 0.00 | 0.39 | 0.00 | 53 | 1017.8 |
| 20260507083436 | 40 | 62 | 3.0 | 7.0 | 0.00 | 0.39 | 0.00 | 53 | 1017.9 |
| 20260507083334 | 41 | 62 | 3.0 | 7.0 | 0.00 | 0.39 | 0.00 | 53 | 1017.9 |
| 20260507083240 | 41 | 62 | 4.0 | 7.0 | 0.00 | 0.39 | 0.00 | 52 | 1017.9 |
| 20260507083234 | 41 | 62 | 3.0 | 7.0 | 0.00 | 0.39 | 0.00 | 52 | 1017.8 |
| 20260507083029 | 41 | 62 | 3.0 | 7.0 | 0.00 | 0.39 | 0.00 | 52 | 1017.9 |
| 20260507082928 | 41 | 62 | 3.0 | 7.0 | 0.00 | 0.39 | 0.00 | 51 | 1017.8 |
| 20260507082828 | 42 | 62 | 4.0 | 7.0 | 0.00 | 0.39 | 0.00 | 51 | 1017.9 |
| 20260507082751 | 42 | 82 | 4.0 | 10.0 | 0.00 | 0.39 | 0.00 | 50 | 1017.7 |
| 20260507082623 | 42 | 96 | 4.0 | 10.0 | 0.00 | 0.39 | 0.00 | 51 | 1017.8 |
| 20260507082523 | 42 | 102 | 4.0 | 10.0 | 0.00 | 0.39 | 0.00 | 50 | 1017.7 |
| 20260507082430 | 42 | 99 | 4.0 | 12.0 | 0.00 | 0.39 | 0.00 | 50 | 1017.8 |
| 20260507082229 | 42 | 94 | 5.0 | 16.0 | 0.00 | 0.39 | 0.00 | 51 | 1017.7 |
| 20260507082223 | 43 | 92 | 6.0 | 16.0 | 0.00 | 0.39 | 0.00 | 51 | 1017.7 |
| 20260507082018 | 43 | 115 | 7.0 | 19.0 | 0.00 | 0.39 | 0.00 | 50 | 1017.7 |
| 20260507081924 | 43 | 173 | 7.0 | 19.0 | 0.00 | 0.39 | 0.00 | 49 | 1017.7 |
| 20260507081711 | 43 | 191 | 8.0 | 19.0 | 0.00 | 0.39 | 0.00 | 49 | 1017.8 |
| 20260507081634 | 43 | 205 | 8.0 | 19.0 | 0.00 | 0.39 | 0.00 | 49 | 1017.7 |
| 20260507081611 | 43 | 213 | 8.0 | 19.0 | 0.00 | 0.39 | 0.00 | 49 | 1017.7 |
| 20260507081511 | 43 | 243 | 8.0 | 20.0 | 0.00 | 0.39 | 0.00 | 48 | 1017.8 |
| 20260507081410 | 43 | 207 | 8.0 | 20.0 | 0.00 | 0.39 | 0.00 | 49 | 1017.8 |
| 20260507081309 | 43 | 200 | 8.0 | 20.0 | 0.00 | 0.39 | 0.00 | 48 | 1017.8 |
| 20260507081207 | 43 | 204 | 8.0 | 20.0 | 0.00 | 0.39 | 0.00 | 48 | 1017.8 |
| 20260507081129 | 43 | 229 | 8.0 | 20.0 | 0.00 | 0.39 | 0.00 | 48 | 1017.8 |
| 20260507081107 | 43 | 236 | 8.0 | 20.0 | 0.00 | 0.39 | 0.00 | 49 | 1017.8 |
| 20260507081007 | 43 | 212 | 8.0 | 20.0 | 0.00 | 0.39 | 0.00 | 49 | 1017.9 |
| 20260507080908 | 43 | 258 | 8.0 | 20.0 | 0.00 | 0.39 | 0.00 | 48 | 1017.9 |
| 20260507080804 | 42 | 221 | 8.0 | 20.0 | 0.00 | 0.39 | 0.00 | 49 | 1017.9 |
| 20260507080729 | 42 | 320 | 8.0 | 20.0 | 0.00 | 0.39 | 0.00 | 49 | 1017.8 |
| 20260507080607 | 42 | 264 | 9.0 | 20.0 | 0.00 | 0.39 | 0.00 | 48 | 1017.9 |
| 20260507080358 | 42 | 213 | 9.0 | 17.0 | 0.00 | 0.39 | 0.00 | 50 | 1018.0 |
| 20260507080259 | 42 | 223 | 9.0 | 17.0 | 0.00 | 0.39 | 0.00 | 50 | 1018.0 |
| 20260507080116 | 41 | 231 | 8.0 | 17.0 | 0.00 | 0.39 | 0.00 | 50 | 1017.9 |
| 20260507080052 | 41 | 232 | 8.0 | 17.0 | 0.00 | 0.39 | 0.00 | 51 | 1017.9 |
| 20260507075953 | 41 | 260 | 8.0 | 17.0 | 0.00 | 0.39 | 0.00 | 51 | 1018.0 |
| 20260507075852 | 40 | 223 | 7.0 | 17.0 | 0.00 | 0.39 | 0.00 | 52 | 1018.0 |
| 20260507075752 | 40 | 212 | 6.0 | 17.0 | 0.00 | 0.39 | 0.00 | 53 | 1018.0 |
| 20260507075646 | 40 | 182 | 5.0 | 17.0 | 0.00 | 0.39 | 0.00 | 53 | 1018.0 |
| 20260507075611 | 40 | 221 | 5.0 | 17.0 | 0.00 | 0.39 | 0.00 | 54 | 1018.0 |
| 20260507075547 | 39 | 240 | 5.0 | 17.0 | 0.00 | 0.39 | 0.00 | 53 | 1018.1 |
| 20260507075500 | 39 | 234 | 5.0 | 17.0 | 0.00 | 0.39 | 0.00 | 54 | 1018.1 |
| 20260507075141 | 39 | 198 | 4.0 | 10.0 | 0.00 | 0.39 | 0.00 | 56 | 1018.3 |
| 20260507075103 | 39 | 317 | 4.0 | 10.0 | 0.00 | 0.39 | 0.00 | 56 | 1018.3 |
| 20260507075041 | 39 | 211 | 4.0 | 10.0 | 0.00 | 0.39 | 0.00 | 55 | 1018.4 |
| 20260507074941 | 39 | 213 | 4.0 | 10.0 | 0.00 | 0.39 | 0.00 | 56 | 1018.3 |
| 20260507074841 | 39 | 235 | 4.0 | 10.0 | 0.00 | 0.39 | 0.00 | 55 | 1018.3 |
| 20260507074740 | 39 | 210 | 4.0 | 10.0 | 0.00 | 0.39 | 0.00 | 56 | 1018.4 |
| 20260507074648 | 39 | 194 | 5.0 | 10.0 | 0.00 | 0.39 | 0.00 | 56 | 1018.4 |
| 20260507074643 | 39 | 229 | 5.0 | 10.0 | 0.00 | 0.39 | 0.00 | 57 | 1018.4 |
| 20260507074437 | 39 | 200 | 4.0 | 10.0 | 0.00 | 0.39 | 0.00 | 56 | 1018.4 |
| 20260507074337 | 39 | 190 | 4.0 | 10.0 | 0.00 | 0.39 | 0.00 | 55 | 1018.5 |
| 20260507074234 | 39 | 229 | 5.0 | 10.0 | 0.00 | 0.39 | 0.00 | 55 | 1018.5 |
| 20260507074157 | 39 | 207 | 5.0 | 10.0 | 0.00 | 0.39 | 0.00 | 56 | 1018.4 |
| 20260507074035 | 39 | 210 | 5.0 | 15.0 | 0.00 | 0.39 | 0.00 | 56 | 1018.5 |
| 20260507073836 | 39 | 227 | 5.0 | 15.0 | 0.00 | 0.39 | 0.00 | 57 | 1018.5 |
| 20260507073634 | 38 | 289 | 6.0 | 15.0 | 0.00 | 0.39 | 0.00 | 58 | 1018.5 |
| 20260507073629 | 38 | 215 | 6.0 | 15.0 | 0.00 | 0.39 | 0.00 | 59 | 1018.5 |
| 20260507073422 | 38 | 235 | 6.0 | 15.0 | 0.00 | 0.39 | 0.00 | 59 | 1018.5 |
| 20260507073322 | 38 | 229 | 6.0 | 15.0 | 0.00 | 0.39 | 0.00 | 59 | 1018.5 |
| 20260507073223 | 37 | 196 | 6.0 | 15.0 | 0.00 | 0.39 | 0.00 | 60 | 1018.5 |
| 20260507073129 | 36 | 252 | 6.0 | 15.0 | 0.00 | 0.39 | 0.00 | 62 | 1018.5 |
| 20260507073123 | 36 | 248 | 5.0 | 15.0 | 0.00 | 0.39 | 0.00 | 64 | 1018.7 |
| 20260507072923 | 35 | 251 | 5.0 | 10.0 | 0.00 | 0.39 | 0.00 | 67 | 1018.7 |
| 20260507072716 | 34 | 232 | 4.0 | 10.0 | 0.00 | 0.39 | 0.00 | 70 | 1018.7 |
| 20260507072610 | 34 | 273 | 4.0 | 10.0 | 0.00 | 0.39 | 0.00 | 70 | 1018.6 |
| 20260507072535 | 33 | 234 | 3.0 | 10.0 | 0.00 | 0.39 | 0.00 | 71 | 1018.6 |
| 20260507072511 | 33 | 262 | 3.0 | 10.0 | 0.00 | 0.39 | 0.00 | 71 | 1018.6 |
| 20260507072411 | 33 | 238 | 3.0 | 8.0 | 0.00 | 0.39 | 0.00 | 74 | 1018.6 |
| 20260507072310 | 33 | 263 | 2.0 | 8.0 | 0.00 | 0.39 | 0.00 | 75 | 1018.6 |
| 20260507072210 | 33 | 217 | 2.0 | 8.0 | 0.00 | 0.39 | 0.00 | 75 | 1018.7 |
| 20260507072109 | 33 | 233 | 2.0 | 8.0 | 0.00 | 0.39 | 0.00 | 75 | 1018.7 |
| 20260507072028 | 32 | 281 | 2.0 | 7.0 | 0.00 | 0.39 | 0.00 | 76 | 1018.7 |
| 20260507072008 | 32 | 246 | 2.0 | 7.0 | 0.00 | 0.39 | 0.00 | 76 | 1018.7 |
| 20260507071910 | 32 | 157 | 2.0 | 5.0 | 0.00 | 0.39 | 0.00 | 77 | 1018.7 |
| 20260507071808 | 32 | 157 | 2.0 | 5.0 | 0.00 | 0.39 | 0.00 | 78 | 1018.7 |
| 20260507071706 | 32 | 157 | 2.0 | 5.0 | 0.00 | 0.39 | 0.00 | 78 | 1018.7 |
| 20260507071522 | 32 | 171 | 2.0 | 4.0 | 0.00 | 0.39 | 0.00 | 79 | 1018.6 |
| 20260507071459 | 32 | 171 | 2.0 | 4.0 | 0.00 | 0.39 | 0.00 | 79 | 1018.6 |
| 20260507071358 | 32 | 171 | 1.0 | 4.0 | 0.00 | 0.39 | 0.00 | 79 | 1018.7 |
| 20260507071259 | 32 | 207 | 2.0 | 4.0 | 0.00 | 0.39 | 0.00 | 79 | 1018.7 |
| 20260507071202 | 31 | 225 | 2.0 | 4.0 | 0.00 | 0.39 | 0.00 | 79 | 1018.7 |
| 20260507071016 | 31 | 219 | 1.0 | 4.0 | 0.00 | 0.39 | 0.00 | 80 | 1018.7 |
| 20260507070955 | 31 | 207 | 1.0 | 4.0 | 0.00 | 0.39 | 0.00 | 80 | 1018.7 |
| 20260507070855 | 31 | 172 | 1.0 | 4.0 | 0.00 | 0.39 | 0.00 | 79 | 1018.7 |
| 20260507070755 | 31 | 172 | 1.0 | 5.0 | 0.00 | 0.39 | 0.00 | 79 | 1018.7 |
| 20260507070653 | 31 | 317 | 1.0 | 5.0 | 0.00 | 0.39 | 0.00 | 79 | 1018.8 |
| 20260507070546 | 31 | 317 | 1.0 | 5.0 | 0.00 | 0.39 | 0.00 | 79 | 1018.8 |
| 20260507070509 | 31 | 155 | 1.0 | 5.0 | 0.00 | 0.39 | 0.00 | 80 | 1018.8 |
| 20260507070447 | 32 | 155 | 1.0 | 5.0 | 0.00 | 0.39 | 0.00 | 80 | 1018.8 |
| 20260507070346 | 31 | 155 | 1.0 | 5.0 | 0.00 | 0.39 | 0.00 | 80 | 1018.7 |
| 20260507070246 | 31 | 155 | 1.0 | 5.0 | 0.00 | 0.39 | 0.00 | 79 | 1018.8 |
| 20260507070145 | 31 | 155 | 2.0 | 5.0 | 0.00 | 0.39 | 0.00 | 79 | 1019.0 |
| 20260507070045 | 31 | 155 | 2.0 | 5.0 | 0.00 | 0.39 | 0.00 | 80 | 1019.0 |
| 20260507070009 | 31 | 155 | 2.0 | 5.0 | 0.00 | 0.39 | 0.00 | 80 | 1019.0 |
| 20260507065945 | 31 | 155 | 2.0 | 5.0 | 0.00 | 0.39 | 0.00 | 80 | 1019.0 |
| 20260507065845 | 31 | 155 | 2.0 | 5.0 | 0.00 | 0.39 | 0.00 | 80 | 1019.0 |
| 20260507065743 | 31 | 155 | 3.0 | 5.0 | 0.00 | 0.39 | 0.00 | 79 | 1018.8 |
| 20260507065640 | 31 | 155 | 2.0 | 5.0 | 0.00 | 0.39 | 0.00 | 79 | 1018.8 |
| 20260507065537 | 31 | 155 | 2.0 | 5.0 | 0.00 | 0.39 | 0.00 | 79 | 1019.0 |
| 20260507065443 | 31 | 155 | 2.0 | 5.0 | 0.00 | 0.39 | 0.00 | 79 | 1019.0 |
| 20260507065237 | 31 | 155 | 2.0 | 5.0 | 0.00 | 0.39 | 0.00 | 80 | 1019.0 |
| 20260507065135 | 31 | 155 | 2.0 | 5.0 | 0.00 | 0.39 | 0.00 | 80 | 1018.8 |
| 20260507064928 | 31 | 155 | 2.0 | 5.0 | 0.00 | 0.39 | 0.00 | 80 | 1018.8 |
| 20260507064829 | 31 | 155 | 2.0 | 5.0 | 0.00 | 0.39 | 0.00 | 80 | 1018.8 |
| 20260507064728 | 31 | 190 | 2.0 | 4.0 | 0.00 | 0.39 | 0.00 | 80 | 1018.8 |
| 20260507064631 | 31 | 190 | 1.0 | 4.0 | 0.00 | 0.39 | 0.00 | 80 | 1018.8 |
| 20260507064424 | 31 | 190 | 1.0 | 4.0 | 0.00 | 0.39 | 0.00 | 79 | 1018.8 |
| 20260507064325 | 31 | 190 | 1.0 | 4.0 | 0.00 | 0.39 | 0.00 | 79 | 1018.8 |
| 20260507064226 | 31 | 190 | 1.0 | 4.0 | 0.00 | 0.39 | 0.00 | 79 | 1018.8 |
| 20260507064122 | 31 | 190 | 1.0 | 4.0 | 0.00 | 0.39 | 0.00 | 79 | 1018.8 |
| 20260507064023 | 31 | 190 | 1.0 | 4.0 | 0.00 | 0.39 | 0.00 | 79 | 1018.8 |
| 20260507063921 | 31 | 190 | 1.0 | 4.0 | 0.00 | 0.39 | 0.00 | 79 | 1019.0 |
| 20260507063835 | 31 | 190 | 0.0 | 4.0 | 0.00 | 0.39 | 0.00 | 79 | 1019.0 |
| 20260507063411 | 31 | 190 | 1.0 | 3.0 | 0.00 | 0.39 | 0.00 | 78 | 1018.8 |
| 20260507063310 | 32 | 190 | 1.0 | 3.0 | 0.00 | 0.39 | 0.00 | 78 | 1018.8 |
| 20260507063210 | 32 | 190 | 1.0 | 3.0 | 0.00 | 0.39 | 0.00 | 78 | 1019.0 |
| 20260507063129 | 32 | 190 | 1.0 | 3.0 | 0.00 | 0.39 | 0.00 | 79 | 1019.0 |
| 20260507063122 | 32 | 190 | 1.0 | 3.0 | 0.00 | 0.39 | 0.00 | 79 | 1019.0 |
| 20260507062807 | 32 | 190 | 1.0 | 3.0 | 0.00 | 0.39 | 0.00 | 79 | 1019.0 |
| 20260507062706 | 32 | 190 | 1.0 | 3.0 | 0.00 | 0.39 | 0.00 | 79 | 1018.8 |
| 20260507062604 | 32 | 190 | 1.0 | 3.0 | 0.00 | 0.39 | 0.00 | 79 | 1019.0 |
| 20260507062520 | 32 | 190 | 1.0 | 2.0 | 0.00 | 0.39 | 0.00 | 79 | 1019.0 |
| 20260507062515 | 32 | 190 | 1.0 | 2.0 | 0.00 | 0.39 | 0.00 | 79 | 1019.0 |
| 20260507062200 | 32 | 190 | 1.0 | 3.0 | 0.00 | 0.39 | 0.00 | 79 | 1018.8 |
| 20260507062058 | 32 | 190 | 1.0 | 5.0 | 0.00 | 0.39 | 0.00 | 79 | 1018.8 |
| 20260507062022 | 32 | 190 | 1.0 | 5.0 | 0.00 | 0.39 | 0.00 | 79 | 1018.8 |
| 20260507061855 | 32 | 190 | 2.0 | 5.0 | 0.00 | 0.39 | 0.00 | 79 | 1018.8 |
| 20260507061801 | 32 | 190 | 2.0 | 6.0 | 0.00 | 0.39 | 0.00 | 79 | 1018.8 |
| 20260507061552 | 32 | 190 | 3.0 | 7.0 | 0.00 | 0.39 | 0.00 | 79 | 1019.0 |
| 20260507061453 | 32 | 190 | 3.0 | 7.0 | 0.00 | 0.39 | 0.00 | 80 | 1019.0 |
| 20260507061246 | 32 | 190 | 4.0 | 7.0 | 0.00 | 0.39 | 0.00 | 80 | 1019.0 |
| 20260507061146 | 32 | 199 | 4.0 | 7.0 | 0.00 | 0.39 | 0.00 | 80 | 1019.0 |
| 20260507061047 | 32 | 217 | 4.0 | 7.0 | 0.00 | 0.39 | 0.00 | 80 | 1019.1 |
| 20260507060940 | 32 | 169 | 4.0 | 7.0 | 0.00 | 0.39 | 0.00 | 81 | 1019.1 |
| 20260507060904 | 32 | 211 | 4.0 | 7.0 | 0.00 | 0.39 | 0.00 | 81 | 1019.1 |
| 20260507060840 | 32 | 211 | 3.0 | 7.0 | 0.00 | 0.39 | 0.00 | 81 | 1019.1 |
| 20260507060740 | 32 | 200 | 3.0 | 7.0 | 0.00 | 0.39 | 0.00 | 81 | 1019.1 |
| 20260507060641 | 32 | 183 | 3.0 | 6.0 | 0.00 | 0.39 | 0.00 | 81 | 1019.1 |
| 20260507060540 | 32 | 207 | 3.0 | 6.0 | 0.00 | 0.39 | 0.00 | 81 | 1019.2 |
| 20260507060436 | 32 | 197 | 3.0 | 6.0 | 0.00 | 0.39 | 0.00 | 81 | 1019.2 |
| 20260507060351 | 32 | 184 | 3.0 | 6.0 | 0.00 | 0.39 | 0.00 | 81 | 1019.2 |
| 20260507060034 | 33 | 159 | 2.0 | 6.0 | 0.00 | 0.39 | 0.00 | 82 | 1019.2 |
| 20260507055932 | 33 | 159 | 2.0 | 6.0 | 0.00 | 0.39 | 0.39 | 82 | 1019.2 |
| 20260507055839 | 33 | 159 | 3.0 | 6.0 | 0.00 | 0.39 | 0.39 | 82 | 1019.2 |
| 20260507055631 | 33 | 159 | 3.0 | 6.0 | 0.00 | 0.39 | 0.39 | 82 | 1019.2 |
| 20260507055530 | 33 | 159 | 3.0 | 5.0 | 0.00 | 0.39 | 0.39 | 82 | 1019.2 |
| 20260507055429 | 33 | 172 | 3.0 | 5.0 | 0.00 | 0.39 | 0.39 | 82 | 1019.2 |
| 20260507055327 | 33 | 112 | 3.0 | 4.0 | 0.00 | 0.39 | 0.39 | 82 | 1019.2 |
| 20260507055226 | 33 | 112 | 3.0 | 4.0 | 0.00 | 0.39 | 0.39 | 82 | 1019.2 |
| 20260507055124 | 33 | 97 | 2.0 | 4.0 | 0.00 | 0.39 | 0.39 | 83 | 1019.2 |
| 20260507055022 | 33 | 97 | 2.0 | 4.0 | 0.00 | 0.39 | 0.39 | 83 | 1019.2 |
| 20260507054928 | 33 | 132 | 2.0 | 5.0 | 0.00 | 0.39 | 0.39 | 84 | 1019.2 |
| 20260507054922 | 33 | 132 | 3.0 | 5.0 | 0.00 | 0.39 | 0.39 | 84 | 1019.2 |
| 20260507054717 | 32 | 148 | 3.0 | 5.0 | 0.00 | 0.39 | 0.39 | 85 | 1019.2 |
| 20260507054616 | 32 | 148 | 3.0 | 5.0 | 0.00 | 0.39 | 0.39 | 85 | 1019.2 |
| 20260507054517 | 32 | 148 | 3.0 | 5.0 | 0.00 | 0.39 | 0.39 | 85 | 1019.2 |
| 20260507054411 | 32 | 149 | 3.0 | 5.0 | 0.00 | 0.39 | 0.39 | 86 | 1019.1 |
| 20260507054334 | 32 | 148 | 3.0 | 5.0 | 0.00 | 0.39 | 0.39 | 86 | 1019.2 |
| 20260507054311 | 32 | 200 | 3.0 | 5.0 | 0.00 | 0.39 | 0.39 | 86 | 1019.2 |
| 20260507054211 | 32 | 200 | 2.0 | 5.0 | 0.00 | 0.39 | 0.39 | 86 | 1019.2 |
| 20260507054118 | 32 | 78 | 2.0 | 5.0 | 0.00 | 0.39 | 0.39 | 86 | 1019.2 |
| 20260507053905 | 32 | 78 | 2.0 | 5.0 | 0.00 | 0.39 | 0.39 | 87 | 1019.1 |
| 20260507053811 | 32 | 78 | 2.0 | 6.0 | 0.00 | 0.39 | 0.39 | 87 | 1019.2 |
| 20260507053605 | 32 | 143 | 2.0 | 6.0 | 0.00 | 0.39 | 0.39 | 87 | 1019.2 |
| 20260507053504 | 32 | 143 | 2.0 | 6.0 | 0.00 | 0.39 | 0.39 | 88 | 1019.2 |
| 20260507053400 | 32 | 143 | 2.0 | 6.0 | 0.00 | 0.39 | 0.39 | 88 | 1019.2 |
| 20260507053322 | 31 | 143 | 2.0 | 6.0 | 0.00 | 0.39 | 0.39 | 88 | 1019.2 |
| 20260507053259 | 32 | 143 | 2.0 | 6.0 | 0.00 | 0.39 | 0.39 | 88 | 1019.2 |
| 20260507053159 | 31 | 143 | 2.0 | 6.0 | 0.00 | 0.39 | 0.39 | 88 | 1019.2 |
| 20260507053059 | 31 | 143 | 3.0 | 6.0 | 0.00 | 0.39 | 0.39 | 89 | 1019.2 |
| 20260507053028 | 31 | 143 | 3.0 | 6.0 | 0.00 | 0.39 | 0.39 | 89 | 1019.2 |
| 20260507052754 | 31 | 132 | 2.0 | 6.0 | 0.00 | 0.39 | 0.39 | 89 | 1019.2 |
| 20260507052653 | 31 | 132 | 2.0 | 6.0 | 0.00 | 0.39 | 0.39 | 89 | 1019.3 |
| 20260507052553 | 31 | 146 | 2.0 | 6.0 | 0.00 | 0.39 | 0.39 | 89 | 1019.3 |
| 20260507052453 | 31 | 164 | 2.0 | 4.0 | 0.00 | 0.39 | 0.39 | 89 | 1019.3 |
| 20260507052310 | 31 | 92 | 2.0 | 6.0 | 0.00 | 0.39 | 0.39 | 89 | 1019.3 |
| 20260507052246 | 31 | 92 | 2.0 | 6.0 | 0.00 | 0.39 | 0.39 | 89 | 1019.3 |
| 20260507052147 | 31 | 92 | 2.0 | 6.0 | 0.00 | 0.39 | 0.39 | 89 | 1019.3 |
| 20260507052046 | 31 | 115 | 2.0 | 6.0 | 0.00 | 0.39 | 0.39 | 89 | 1019.3 |
| 20260507051946 | 31 | 115 | 2.0 | 6.0 | 0.00 | 0.39 | 0.39 | 89 | 1019.3 |
| 20260507051849 | 31 | 115 | 3.0 | 6.0 | 0.00 | 0.39 | 0.39 | 89 | 1019.3 |
| 20260507051642 | 31 | 115 | 3.0 | 6.0 | 0.00 | 0.39 | 0.39 | 89 | 1019.3 |
| 20260507051542 | 31 | 115 | 3.0 | 6.0 | 0.00 | 0.39 | 0.39 | 89 | 1019.3 |
| 20260507051441 | 31 | 115 | 3.0 | 6.0 | 0.00 | 0.39 | 0.39 | 89 | 1019.3 |
| 20260507051341 | 31 | 115 | 3.0 | 4.0 | 0.00 | 0.39 | 0.39 | 89 | 1019.3 |
| 20260507051244 | 31 | 115 | 3.0 | 5.0 | 0.00 | 0.39 | 0.39 | 89 | 1019.3 |
| 20260507051036 | 31 | 115 | 3.0 | 5.0 | 0.00 | 0.39 | 0.39 | 89 | 1019.3 |
| 20260507050934 | 31 | 183 | 2.0 | 5.0 | 0.00 | 0.39 | 0.39 | 89 | 1019.4 |
| 20260507050830 | 31 | 183 | 2.0 | 5.0 | 0.00 | 0.39 | 0.39 | 89 | 1019.3 |
| 20260507050729 | 31 | 183 | 2.0 | 5.0 | 0.00 | 0.39 | 0.39 | 89 | 1019.6 |
| 20260507050629 | 31 | 217 | 2.0 | 5.0 | 0.00 | 0.39 | 0.39 | 89 | 1019.4 |
| 20260507050529 | 31 | 123 | 2.0 | 5.0 | 0.00 | 0.39 | 0.39 | 89 | 1019.4 |
| 20260507050428 | 31 | 123 | 2.0 | 5.0 | 0.00 | 0.39 | 0.39 | 89 | 1019.3 |
| 20260507050326 | 31 | 131 | 2.0 | 5.0 | 0.00 | 0.39 | 0.39 | 89 | 1019.4 |
| 20260507050246 | 31 | 136 | 2.0 | 5.0 | 0.00 | 0.39 | 0.39 | 89 | 1019.4 |
| 20260507050225 | 31 | 159 | 2.0 | 5.0 | 0.00 | 0.39 | 0.39 | 89 | 1019.4 |
| 20260507050126 | 31 | 214 | 2.0 | 5.0 | 0.00 | 0.39 | 0.39 | 89 | 1019.4 |
| 20260507045721 | 31 | 207 | 1.0 | 4.0 | 0.00 | 0.39 | 0.39 | 89 | 1019.4 |
| 20260507045620 | 31 | 81 | 1.0 | 3.0 | 0.00 | 0.39 | 0.39 | 89 | 1019.4 |
| 20260507045519 | 31 | 81 | 1.0 | 3.0 | 0.00 | 0.39 | 0.39 | 89 | 1019.3 |
| 20260507045416 | 31 | 81 | 1.0 | 3.0 | 0.00 | 0.39 | 0.39 | 89 | 1019.3 |
| 20260507045326 | 31 | 81 | 1.0 | 3.0 | 0.00 | 0.39 | 0.39 | 89 | 1019.4 |
| 20260507045320 | 31 | 81 | 1.0 | 3.0 | 0.00 | 0.39 | 0.39 | 88 | 1019.4 |
| 20260507045115 | 31 | 81 | 1.0 | 3.0 | 0.00 | 0.39 | 0.39 | 89 | 1019.4 |
| 20260507045013 | 31 | 81 | 1.0 | 3.0 | 0.00 | 0.39 | 0.39 | 88 | 1019.4 |
| 20260507044910 | 31 | 81 | 2.0 | 4.0 | 0.00 | 0.39 | 0.39 | 88 | 1019.4 |
| 20260507044806 | 31 | 81 | 2.0 | 4.0 | 0.00 | 0.39 | 0.39 | 88 | 1019.4 |
| 20260507044707 | 31 | 81 | 2.0 | 4.0 | 0.00 | 0.39 | 0.39 | 88 | 1019.4 |
| 20260507044608 | 31 | 81 | 2.0 | 4.0 | 0.00 | 0.39 | 0.39 | 88 | 1019.4 |
| 20260507044506 | 31 | 81 | 2.0 | 4.0 | 0.00 | 0.39 | 0.39 | 88 | 1019.3 |
| 20260507044404 | 31 | 81 | 2.0 | 4.0 | 0.00 | 0.39 | 0.39 | 88 | 1019.4 |
| 20260507044259 | 31 | 81 | 2.0 | 4.0 | 0.00 | 0.39 | 0.39 | 88 | 1019.3 |
| 20260507044222 | 31 | 81 | 1.0 | 4.0 | 0.00 | 0.39 | 0.39 | 88 | 1019.4 |
| 20260507044159 | 31 | 81 | 1.0 | 4.0 | 0.00 | 0.39 | 0.39 | 88 | 1019.4 |
| 20260507044058 | 31 | 81 | 1.0 | 4.0 | 0.00 | 0.39 | 0.39 | 88 | 1019.4 |
| 20260507043959 | 31 | 81 | 1.0 | 4.0 | 0.00 | 0.39 | 0.39 | 88 | 1019.4 |
| 20260507043858 | 31 | 81 | 1.0 | 4.0 | 0.00 | 0.39 | 0.39 | 88 | 1019.4 |
| 20260507043753 | 31 | 87 | 1.0 | 4.0 | 0.00 | 0.39 | 0.39 | 88 | 1019.4 |
| 20260507043716 | 31 | 323 | 0.0 | 2.0 | 0.00 | 0.39 | 0.39 | 88 | 1019.4 |
| 20260507043653 | 31 | 323 | 0.0 | 2.0 | 0.00 | 0.39 | 0.39 | 88 | 1019.4 |
| 20260507043552 | 31 | 323 | 1.0 | 2.0 | 0.00 | 0.39 | 0.39 | 88 | 1019.6 |
| 20260507043452 | 31 | 323 | 1.0 | 2.0 | 0.00 | 0.39 | 0.39 | 88 | 1019.6 |
| 20260507043424 | 31 | 323 | 1.0 | 2.0 | 0.00 | 0.39 | 0.39 | 88 | 1019.6 |
| 20260507043203 | 31 | 323 | 1.0 | 2.0 | 0.00 | 0.39 | 0.39 | 88 | 1019.6 |
| 20260507042846 | 31 | 323 | 1.0 | 3.0 | 0.00 | 0.39 | 0.39 | 88 | 1019.6 |
| 20260507042745 | 31 | 323 | 1.0 | 4.0 | 0.00 | 0.39 | 0.39 | 88 | 1019.6 |
| 20260507042704 | 31 | 323 | 1.0 | 4.0 | 0.00 | 0.39 | 0.39 | 88 | 1019.6 |
| 20260507042646 | 31 | 323 | 2.0 | 4.0 | 0.00 | 0.39 | 0.39 | 88 | 1019.6 |
| 20260507042545 | 31 | 323 | 2.0 | 5.0 | 0.00 | 0.39 | 0.39 | 88 | 1019.6 |
| 20260507042448 | 31 | 323 | 2.0 | 5.0 | 0.00 | 0.39 | 0.39 | 88 | 1019.6 |
| 20260507042240 | 31 | 323 | 3.0 | 5.0 | 0.00 | 0.39 | 0.39 | 88 | 1019.6 |
| 20260507042139 | 31 | 323 | 3.0 | 5.0 | 0.00 | 0.39 | 0.39 | 88 | 1019.6 |
| 20260507042038 | 31 | 323 | 3.0 | 5.0 | 0.00 | 0.39 | 0.39 | 88 | 1019.7 |
| 20260507041936 | 31 | 323 | 4.0 | 7.0 | 0.00 | 0.39 | 0.39 | 89 | 1019.7 |
| 20260507041834 | 31 | 323 | 4.0 | 7.0 | 0.00 | 0.39 | 0.39 | 89 | 1019.7 |
| 20260507041735 | 31 | 323 | 4.0 | 7.0 | 0.00 | 0.39 | 0.39 | 89 | 1019.7 |
| 20260507041632 | 31 | 323 | 4.0 | 7.0 | 0.00 | 0.39 | 0.39 | 89 | 1019.7 |
| 20260507041533 | 31 | 355 | 3.0 | 7.0 | 0.00 | 0.39 | 0.39 | 89 | 1019.7 |
| 20260507041431 | 31 | 355 | 3.0 | 7.0 | 0.00 | 0.39 | 0.39 | 88 | 1019.7 |
| 20260507041332 | 31 | 355 | 3.0 | 7.0 | 0.00 | 0.39 | 0.39 | 88 | 1019.7 |
| 20260507041147 | 31 | 355 | 2.0 | 7.0 | 0.00 | 0.39 | 0.39 | 88 | 1019.8 |
| 20260507041123 | 31 | 342 | 2.0 | 7.0 | 0.00 | 0.39 | 0.39 | 88 | 1019.8 |
| 20260507041023 | 31 | 336 | 2.0 | 7.0 | 0.00 | 0.39 | 0.39 | 88 | 1019.8 |
| 20260507040923 | 31 | 344 | 2.0 | 5.0 | 0.00 | 0.39 | 0.39 | 88 | 1019.8 |
| 20260507040826 | 31 | 348 | 1.0 | 5.0 | 0.00 | 0.39 | 0.39 | 87 | 1019.8 |
| 20260507040640 | 31 | 349 | 1.0 | 4.0 | 0.00 | 0.39 | 0.39 | 87 | 1019.8 |
| 20260507040619 | 31 | 9 | 1.0 | 4.0 | 0.00 | 0.39 | 0.39 | 87 | 1019.8 |
| 20260507040518 | 31 | 9 | 1.0 | 4.0 | 0.00 | 0.39 | 0.39 | 87 | 1019.8 |
| 20260507040419 | 31 | 207 | 1.0 | 2.0 | 0.00 | 0.39 | 0.39 | 87 | 1019.9 |
| 20260507040316 | 31 | 207 | 1.0 | 2.0 | 0.00 | 0.39 | 0.39 | 87 | 1019.9 |
| 20260507040214 | 31 | 207 | 1.0 | 2.0 | 0.00 | 0.39 | 0.39 | 87 | 1019.8 |
| 20260507040115 | 31 | 207 | 1.0 | 3.0 | 0.00 | 0.39 | 0.39 | 87 | 1019.8 |
| 20260507040015 | 31 | 207 | 1.0 | 3.0 | 0.00 | 0.39 | 0.39 | 87 | 1019.8 |
| 20260507035912 | 31 | 207 | 1.0 | 3.0 | 0.00 | 0.39 | 0.39 | 87 | 1019.8 |
| 20260507035811 | 31 | 207 | 1.0 | 3.0 | 0.00 | 0.39 | 0.39 | 87 | 1019.8 |
| 20260507035734 | 31 | 207 | 1.0 | 3.0 | 0.00 | 0.39 | 0.39 | 87 | 1019.8 |
| 20260507035604 | 31 | 207 | 1.0 | 3.0 | 0.00 | 0.39 | 0.39 | 87 | 1019.8 |
| 20260507035504 | 31 | 207 | 1.0 | 3.0 | 0.00 | 0.39 | 0.39 | 87 | 1019.8 |
| 20260507035404 | 31 | 207 | 1.0 | 3.0 | 0.00 | 0.39 | 0.39 | 87 | 1019.9 |
| 20260507035309 | 31 | 207 | 1.0 | 4.0 | 0.00 | 0.39 | 0.39 | 87 | 1019.9 |
| 20260507035122 | 31 | 207 | 2.0 | 4.0 | 0.00 | 0.39 | 0.39 | 87 | 1019.8 |
| 20260507035115 | 31 | 207 | 2.0 | 4.0 | 0.00 | 0.39 | 0.39 | 87 | 1019.8 |
| 20260507034759 | 31 | 207 | 2.0 | 4.0 | 0.00 | 0.39 | 0.39 | 86 | 1019.7 |
| 20260507034652 | 31 | 207 | 2.0 | 4.0 | 0.00 | 0.39 | 0.39 | 86 | 1019.8 |
| 20260507034617 | 31 | 207 | 2.0 | 4.0 | 0.00 | 0.39 | 0.39 | 86 | 1019.8 |
| 20260507034552 | 31 | 207 | 2.0 | 4.0 | 0.00 | 0.39 | 0.39 | 86 | 1019.8 |
| 20260507034453 | 31 | 207 | 2.0 | 4.0 | 0.00 | 0.39 | 0.39 | 86 | 1019.7 |
| 20260507034352 | 31 | 207 | 3.0 | 5.0 | 0.00 | 0.39 | 0.39 | 86 | 1019.7 |
| 20260507034253 | 31 | 207 | 3.0 | 5.0 | 0.00 | 0.39 | 0.39 | 86 | 1019.7 |
| 20260507034110 | 31 | 207 | 3.0 | 5.0 | 0.00 | 0.39 | 0.39 | 86 | 1019.8 |
| 20260507034046 | 31 | 207 | 3.0 | 5.0 | 0.00 | 0.39 | 0.39 | 86 | 1019.8 |
| 20260507033946 | 31 | 207 | 3.0 | 5.0 | 0.00 | 0.39 | 0.39 | 86 | 1019.8 |
| 20260507033846 | 31 | 207 | 3.0 | 5.0 | 0.00 | 0.39 | 0.39 | 86 | 1019.8 |
| 20260507033746 | 31 | 207 | 3.0 | 5.0 | 0.00 | 0.39 | 0.39 | 86 | 1019.8 |
| 20260507033640 | 31 | 207 | 3.0 | 5.0 | 0.00 | 0.39 | 0.39 | 86 | 1019.8 |
| 20260507033604 | 31 | 207 | 3.0 | 5.0 | 0.00 | 0.39 | 0.39 | 85 | 1019.8 |
| 20260507033540 | 31 | 207 | 3.0 | 5.0 | 0.00 | 0.39 | 0.39 | 85 | 1019.8 |
| 20260507033441 | 31 | 207 | 3.0 | 5.0 | 0.00 | 0.39 | 0.39 | 85 | 1019.9 |
| 20260507033340 | 31 | 209 | 3.0 | 5.0 | 0.00 | 0.39 | 0.39 | 85 | 1019.8 |
| 20260507033239 | 31 | 184 | 3.0 | 5.0 | 0.00 | 0.39 | 0.39 | 85 | 1019.8 |
| 20260507033209 | 31 | 201 | 3.0 | 5.0 | 0.00 | 0.39 | 0.39 | 85 | 1019.8 |
| 20260507033034 | 31 | 207 | 3.0 | 5.0 | 0.00 | 0.39 | 0.39 | 85 | 1019.8 |
| 20260507032935 | 31 | 207 | 3.0 | 4.0 | 0.00 | 0.39 | 0.39 | 85 | 1019.8 |
| 20260507032841 | 32 | 207 | 3.0 | 4.0 | 0.00 | 0.39 | 0.39 | 85 | 1019.9 |
| 20260507032651 | 32 | 196 | 3.0 | 5.0 | 0.00 | 0.39 | 0.39 | 85 | 1019.8 |
| 20260507032227 | 32 | 196 | 3.0 | 5.0 | 0.00 | 0.39 | 0.39 | 84 | 1019.8 |
| 20260507032124 | 32 | 196 | 3.0 | 5.0 | 0.00 | 0.39 | 0.39 | 84 | 1019.8 |
| 20260507032103 | 32 | 191 | 3.0 | 5.0 | 0.00 | 0.39 | 0.39 | 84 | 1019.8 |
| 20260507032022 | 32 | 213 | 3.0 | 5.0 | 0.00 | 0.39 | 0.39 | 84 | 1019.8 |
| 20260507031922 | 32 | 213 | 3.0 | 5.0 | 0.00 | 0.39 | 0.39 | 84 | 1019.8 |
| 20260507031822 | 32 | 213 | 3.0 | 5.0 | 0.00 | 0.39 | 0.39 | 84 | 1019.8 |
| 20260507031723 | 32 | 199 | 3.0 | 5.0 | 0.00 | 0.39 | 0.39 | 84 | 1019.8 |
| 20260507031624 | 32 | 177 | 3.0 | 5.0 | 0.00 | 0.39 | 0.39 | 84 | 1019.7 |
| 20260507031419 | 32 | 177 | 3.0 | 5.0 | 0.00 | 0.39 | 0.39 | 84 | 1019.7 |
| 20260507031318 | 32 | 177 | 3.0 | 6.0 | 0.00 | 0.39 | 0.39 | 84 | 1019.7 |
| 20260507031216 | 32 | 177 | 3.0 | 6.0 | 0.00 | 0.39 | 0.39 | 84 | 1019.8 |
| 20260507031102 | 32 | 177 | 3.0 | 6.0 | 0.00 | 0.39 | 0.39 | 84 | 1019.8 |
| 20260507031010 | 32 | 177 | 3.0 | 7.0 | 0.00 | 0.39 | 0.39 | 84 | 1019.7 |
| 20260507030910 | 32 | 177 | 4.0 | 7.0 | 0.00 | 0.39 | 0.39 | 84 | 1019.7 |
| 20260507030810 | 32 | 177 | 4.0 | 7.0 | 0.00 | 0.39 | 0.39 | 84 | 1019.7 |
| 20260507030713 | 32 | 177 | 4.0 | 7.0 | 0.00 | 0.39 | 0.39 | 84 | 1019.8 |
| 20260507030600 | 32 | 177 | 4.0 | 7.0 | 0.00 | 0.39 | 0.39 | 84 | 1019.7 |
| 20260507030507 | 33 | 177 | 5.0 | 7.0 | 0.00 | 0.39 | 0.39 | 84 | 1019.8 |
| 20260507030407 | 33 | 177 | 5.0 | 7.0 | 0.00 | 0.39 | 0.39 | 84 | 1019.8 |
| 20260507030306 | 33 | 177 | 5.0 | 7.0 | 0.00 | 0.39 | 0.39 | 83 | 1019.8 |
| 20260507030211 | 33 | 177 | 5.0 | 7.0 | 0.00 | 0.39 | 0.39 | 83 | 1019.8 |
| 20260507030204 | 33 | 177 | 5.0 | 7.0 | 0.00 | 0.39 | 0.39 | 83 | 1019.8 |
| 20260507030006 | 33 | 177 | 5.0 | 7.0 | 0.00 | 0.39 | 0.39 | 83 | 1019.7 |
| 20260507025758 | 33 | 190 | 5.0 | 7.0 | 0.00 | 0.39 | 0.39 | 83 | 1019.7 |
| 20260507025658 | 33 | 198 | 5.0 | 7.0 | 0.00 | 0.39 | 0.39 | 83 | 1019.7 |
| 20260507025558 | 33 | 169 | 5.0 | 7.0 | 0.00 | 0.39 | 0.39 | 83 | 1019.7 |
| 20260507025552 | 33 | 189 | 5.0 | 7.0 | 0.00 | 0.39 | 0.39 | 83 | 1019.7 |
| 20260507025453 | 33 | 178 | 4.0 | 7.0 | 0.00 | 0.39 | 0.39 | 83 | 1019.7 |
| 20260507025352 | 33 | 174 | 5.0 | 7.0 | 0.00 | 0.39 | 0.39 | 83 | 1019.7 |
| 20260507025252 | 33 | 174 | 5.0 | 7.0 | 0.00 | 0.39 | 0.39 | 83 | 1019.7 |
| 20260507025152 | 33 | 174 | 4.0 | 7.0 | 0.00 | 0.39 | 0.39 | 83 | 1019.8 |
| 20260507025059 | 33 | 171 | 4.0 | 7.0 | 0.00 | 0.39 | 0.39 | 83 | 1019.8 |
| 20260507025048 | 33 | 171 | 4.0 | 7.0 | 0.00 | 0.39 | 0.39 | 82 | 1019.8 |
| 20260507024949 | 33 | 192 | 5.0 | 7.0 | 0.00 | 0.39 | 0.39 | 82 | 1019.7 |
| 20260507024849 | 33 | 200 | 5.0 | 7.0 | 0.00 | 0.39 | 0.39 | 82 | 1019.7 |
| 20260507024753 | 33 | 195 | 5.0 | 7.0 | 0.00 | 0.39 | 0.39 | 82 | 1019.7 |
| 20260507024556 | 33 | 165 | 5.0 | 7.0 | 0.00 | 0.39 | 0.39 | 82 | 1019.6 |
| 20260507024540 | 33 | 162 | 5.0 | 7.0 | 0.00 | 0.39 | 0.39 | 82 | 1019.7 |
| 20260507024440 | 33 | 147 | 5.0 | 7.0 | 0.00 | 0.39 | 0.39 | 82 | 1019.7 |
| 20260507024341 | 33 | 181 | 5.0 | 9.0 | 0.00 | 0.39 | 0.39 | 82 | 1019.7 |
| 20260507024240 | 33 | 191 | 5.0 | 9.0 | 0.00 | 0.39 | 0.39 | 82 | 1019.7 |
| 20260507024140 | 33 | 191 | 5.0 | 9.0 | 0.00 | 0.39 | 0.39 | 82 | 1019.7 |
| 20260507024058 | 33 | 188 | 5.0 | 9.0 | 0.00 | 0.39 | 0.39 | 82 | 1019.7 |
| 20260507024034 | 33 | 188 | 6.0 | 9.0 | 0.00 | 0.39 | 0.39 | 82 | 1019.7 |
| 20260507023934 | 33 | 171 | 6.0 | 9.0 | 0.00 | 0.39 | 0.39 | 81 | 1019.6 |
| 20260507023834 | 33 | 190 | 6.0 | 9.0 | 0.00 | 0.39 | 0.39 | 81 | 1019.6 |
| 20260507023734 | 33 | 181 | 6.0 | 9.0 | 0.00 | 0.39 | 0.39 | 81 | 1019.6 |
| 20260507023633 | 33 | 170 | 6.0 | 9.0 | 0.00 | 0.39 | 0.39 | 81 | 1019.6 |
| 20260507023558 | 33 | 165 | 6.0 | 9.0 | 0.00 | 0.39 | 0.39 | 81 | 1019.6 |
| 20260507023528 | 33 | 178 | 6.0 | 9.0 | 0.00 | 0.39 | 0.39 | 81 | 1019.4 |
| 20260507023429 | 33 | 184 | 6.0 | 9.0 | 0.00 | 0.39 | 0.39 | 81 | 1019.6 |
| 20260507023328 | 33 | 165 | 6.0 | 9.0 | 0.00 | 0.39 | 0.39 | 81 | 1019.4 |
| 20260507023229 | 33 | 173 | 5.0 | 9.0 | 0.00 | 0.39 | 0.39 | 81 | 1019.6 |
| 20260507023129 | 33 | 175 | 5.0 | 9.0 | 0.00 | 0.39 | 0.39 | 81 | 1019.6 |
| 20260507023057 | 33 | 173 | 5.0 | 9.0 | 0.00 | 0.39 | 0.39 | 81 | 1019.6 |
| 20260507023025 | 33 | 163 | 5.0 | 9.0 | 0.00 | 0.39 | 0.39 | 81 | 1019.7 |
| 20260507022925 | 33 | 170 | 6.0 | 10.0 | 0.00 | 0.39 | 0.39 | 80 | 1019.7 |
| 20260507022916 | 33 | 188 | 6.0 | 10.0 | 0.00 | 0.39 | 0.39 | 80 | 1019.7 |
| 20260507022524 | 34 | 177 | 6.0 | 10.0 | 0.00 | 0.39 | 0.39 | 80 | 1019.7 |
| 20260507022424 | 34 | 175 | 6.0 | 10.0 | 0.00 | 0.39 | 0.39 | 80 | 1019.6 |
| 20260507022325 | 34 | 173 | 6.0 | 10.0 | 0.00 | 0.39 | 0.39 | 80 | 1019.6 |
| 20260507022225 | 34 | 195 | 6.0 | 10.0 | 0.00 | 0.39 | 0.39 | 80 | 1019.6 |
| 20260507022125 | 34 | 183 | 6.0 | 10.0 | 0.00 | 0.39 | 0.39 | 80 | 1019.4 |
| 20260507022056 | 34 | 188 | 6.0 | 10.0 | 0.00 | 0.39 | 0.39 | 80 | 1019.4 |
| 20260507022025 | 34 | 175 | 6.0 | 10.0 | 0.00 | 0.39 | 0.39 | 80 | 1019.4 |
| 20260507021924 | 34 | 167 | 6.0 | 10.0 | 0.00 | 0.39 | 0.39 | 80 | 1019.4 |
| 20260507021829 | 34 | 190 | 6.0 | 10.0 | 0.00 | 0.39 | 0.39 | 80 | 1019.4 |
| 20260507021622 | 34 | 192 | 6.0 | 10.0 | 0.00 | 0.39 | 0.39 | 80 | 1019.4 |
| 20260507021556 | 34 | 185 | 6.0 | 10.0 | 0.00 | 0.39 | 0.39 | 80 | 1019.4 |
| 20260507021523 | 34 | 164 | 6.0 | 10.0 | 0.00 | 0.39 | 0.39 | 80 | 1019.4 |
| 20260507021422 | 34 | 159 | 6.0 | 10.0 | 0.00 | 0.39 | 0.39 | 80 | 1019.3 |
| 20260507021318 | 34 | 153 | 6.0 | 10.0 | 0.00 | 0.39 | 0.39 | 79 | 1019.3 |
| 20260507021218 | 34 | 169 | 6.0 | 10.0 | 0.00 | 0.39 | 0.39 | 79 | 1019.4 |
| 20260507021119 | 34 | 166 | 6.0 | 10.0 | 0.00 | 0.39 | 0.39 | 79 | 1019.4 |
| 20260507021056 | 34 | 155 | 6.0 | 10.0 | 0.00 | 0.39 | 0.39 | 79 | 1019.4 |
| 20260507021018 | 34 | 166 | 6.0 | 10.0 | 0.00 | 0.39 | 0.39 | 79 | 1019.4 |
| 20260507020916 | 34 | 163 | 5.0 | 10.0 | 0.00 | 0.39 | 0.39 | 79 | 1019.4 |
| 20260507020810 | 34 | 167 | 5.0 | 9.0 | 0.00 | 0.39 | 0.39 | 79 | 1019.3 |
| 20260507020717 | 34 | 178 | 5.0 | 9.0 | 0.00 | 0.39 | 0.39 | 79 | 1019.3 |
| 20260507020610 | 34 | 175 | 5.0 | 9.0 | 0.00 | 0.39 | 0.39 | 79 | 1019.3 |
| 20260507020554 | 34 | 163 | 5.0 | 9.0 | 0.00 | 0.39 | 0.39 | 79 | 1019.3 |
| 20260507020510 | 34 | 188 | 5.0 | 9.0 | 0.00 | 0.39 | 0.39 | 79 | 1019.3 |
| 20260507020412 | 35 | 169 | 5.0 | 9.0 | 0.00 | 0.39 | 0.39 | 79 | 1019.3 |
| 20260507020204 | 35 | 186 | 5.0 | 9.0 | 0.00 | 0.39 | 0.39 | 78 | 1019.3 |
| 20260507020104 | 35 | 176 | 5.0 | 9.0 | 0.00 | 0.39 | 0.39 | 78 | 1019.3 |
| 20260507020056 | 35 | 174 | 5.0 | 9.0 | 0.00 | 0.39 | 0.39 | 78 | 1019.3 |
| 20260507020041 | 35 | 188 | 5.0 | 9.0 | 0.00 | 0.39 | 0.39 | 78 | 1019.3 |
| 20260507020033 | 35 | 207 | 6.0 | 10.0 | 0.00 | 0.39 | 0.39 | 78 | 1019.2 |
| 20260507015358 | 35 | 139 | 6.0 | 11.0 | 0.00 | 0.39 | 0.39 | 77 | 1019.2 |
| 20260507015256 | 35 | 189 | 7.0 | 12.0 | 0.00 | 0.39 | 0.39 | 77 | 1019.2 |
| 20260507015157 | 35 | 192 | 7.0 | 12.0 | 0.00 | 0.39 | 0.39 | 77 | 1019.2 |
| 20260507015055 | 35 | 169 | 7.0 | 12.0 | 0.00 | 0.39 | 0.39 | 77 | 1019.2 |
| 20260507014956 | 35 | 188 | 7.0 | 12.0 | 0.00 | 0.39 | 0.39 | 77 | 1019.2 |
| 20260507014857 | 35 | 167 | 7.0 | 12.0 | 0.00 | 0.39 | 0.39 | 77 | 1019.2 |
| 20260507014700 | 35 | 157 | 7.0 | 12.0 | 0.00 | 0.39 | 0.39 | 76 | 1019.2 |
| 20260507014653 | 35 | 179 | 7.0 | 12.0 | 0.00 | 0.39 | 0.39 | 76 | 1019.2 |
| 20260507014448 | 36 | 179 | 7.0 | 12.0 | 0.00 | 0.39 | 0.39 | 76 | 1019.2 |
| 20260507014349 | 36 | 179 | 7.0 | 12.0 | 0.00 | 0.39 | 0.39 | 76 | 1019.3 |
| 20260507014248 | 36 | 167 | 7.0 | 11.0 | 0.00 | 0.39 | 0.39 | 76 | 1019.2 |
| 20260507014056 | 36 | 163 | 7.0 | 11.0 | 0.00 | 0.39 | 0.39 | 76 | 1019.2 |
| 20260507014048 | 36 | 149 | 7.0 | 11.0 | 0.00 | 0.39 | 0.39 | 76 | 1019.3 |
| 20260507013838 | 36 | 181 | 7.0 | 12.0 | 0.00 | 0.39 | 0.39 | 75 | 1019.3 |
| 20260507013736 | 36 | 180 | 7.0 | 12.0 | 0.00 | 0.39 | 0.39 | 75 | 1019.3 |
| 20260507013636 | 36 | 168 | 7.0 | 12.0 | 0.00 | 0.39 | 0.39 | 75 | 1019.3 |
| 20260507013554 | 36 | 158 | 7.0 | 12.0 | 0.00 | 0.39 | 0.39 | 75 | 1019.3 |
| 20260507013536 | 36 | 149 | 6.0 | 12.0 | 0.00 | 0.39 | 0.39 | 75 | 1019.3 |
| 20260507013436 | 36 | 171 | 6.0 | 12.0 | 0.00 | 0.39 | 0.39 | 75 | 1019.2 |
| 20260507013343 | 36 | 151 | 6.0 | 12.0 | 0.00 | 0.39 | 0.39 | 75 | 1019.3 |
| 20260507013136 | 36 | 154 | 6.0 | 12.0 | 0.00 | 0.39 | 0.39 | 74 | 1019.2 |
| 20260507013055 | 37 | 168 | 6.0 | 12.0 | 0.00 | 0.39 | 0.39 | 74 | 1019.2 |
| 20260507013038 | 37 | 181 | 6.0 | 12.0 | 0.00 | 0.39 | 0.39 | 74 | 1019.3 |
| 20260507012936 | 37 | 175 | 6.0 | 11.0 | 0.00 | 0.39 | 0.39 | 74 | 1019.3 |
| 20260507012836 | 37 | 186 | 6.0 | 11.0 | 0.00 | 0.39 | 0.39 | 74 | 1019.3 |
| 20260507012736 | 37 | 163 | 6.0 | 11.0 | 0.00 | 0.39 | 0.39 | 74 | 1019.4 |
| 20260507012636 | 37 | 163 | 6.0 | 11.0 | 0.00 | 0.39 | 0.39 | 74 | 1019.3 |
| 20260507012555 | 37 | 188 | 6.0 | 11.0 | 0.00 | 0.39 | 0.39 | 74 | 1019.3 |
| 20260507012531 | 37 | 155 | 7.0 | 11.0 | 0.00 | 0.39 | 0.39 | 74 | 1019.3 |
| 20260507012432 | 37 | 162 | 7.0 | 11.0 | 0.00 | 0.39 | 0.39 | 73 | 1019.4 |
| 20260507012332 | 37 | 195 | 7.0 | 11.0 | 0.00 | 0.39 | 0.39 | 73 | 1019.4 |
| 20260507012239 | 37 | 180 | 7.0 | 11.0 | 0.00 | 0.39 | 0.39 | 73 | 1019.4 |
| 20260507012054 | 37 | 140 | 7.0 | 11.0 | 0.00 | 0.39 | 0.39 | 72 | 1019.4 |
| 20260507012032 | 37 | 184 | 7.0 | 11.0 | 0.00 | 0.39 | 0.39 | 72 | 1019.4 |
| 20260507011932 | 37 | 153 | 7.0 | 11.0 | 0.00 | 0.39 | 0.39 | 72 | 1019.4 |
| 20260507011832 | 37 | 132 | 7.0 | 11.0 | 0.00 | 0.39 | 0.39 | 72 | 1019.6 |
| 20260507011732 | 38 | 165 | 6.0 | 11.0 | 0.00 | 0.39 | 0.39 | 71 | 1019.4 |
| 20260507011632 | 38 | 159 | 6.0 | 11.0 | 0.00 | 0.39 | 0.39 | 71 | 1019.6 |
| 20260507011555 | 38 | 157 | 6.0 | 11.0 | 0.00 | 0.39 | 0.39 | 71 | 1019.6 |
| 20260507011533 | 38 | 155 | 6.0 | 11.0 | 0.01 | 0.39 | 0.39 | 71 | 1019.6 |
| 20260507011432 | 38 | 159 | 6.0 | 10.0 | 0.01 | 0.39 | 0.39 | 71 | 1019.6 |
| 20260507011332 | 38 | 162 | 6.0 | 10.0 | 0.01 | 0.39 | 0.39 | 71 | 1019.6 |
| 20260507011232 | 38 | 167 | 6.0 | 10.0 | 0.01 | 0.39 | 0.39 | 70 | 1019.7 |
| 20260507011202 | 38 | 158 | 6.0 | 11.0 | 0.01 | 0.39 | 0.39 | 70 | 1019.6 |
| 20260507010830 | 38 | 180 | 6.0 | 11.0 | 0.01 | 0.39 | 0.39 | 70 | 1019.6 |
| 20260507010730 | 39 | 163 | 6.0 | 11.0 | 0.01 | 0.39 | 0.39 | 70 | 1019.7 |
| 20260507010630 | 39 | 169 | 6.0 | 11.0 | 0.01 | 0.39 | 0.39 | 69 | 1019.7 |
| 20260507010554 | 39 | 174 | 6.0 | 11.0 | 0.01 | 0.39 | 0.39 | 69 | 1019.6 |
| 20260507010530 | 39 | 163 | 6.0 | 11.0 | 0.01 | 0.39 | 0.39 | 69 | 1019.6 |
| 20260507010430 | 39 | 162 | 6.0 | 11.0 | 0.01 | 0.39 | 0.39 | 69 | 1019.7 |
| 20260507010330 | 39 | 159 | 6.0 | 11.0 | 0.01 | 0.39 | 0.39 | 68 | 1019.7 |
| 20260507010230 | 39 | 199 | 6.0 | 11.0 | 0.01 | 0.39 | 0.39 | 68 | 1019.8 |
| 20260507010126 | 40 | 154 | 6.0 | 11.0 | 0.01 | 0.39 | 0.39 | 68 | 1019.7 |
| 20260507010050 | 40 | 158 | 6.0 | 11.0 | 0.01 | 0.39 | 0.39 | 68 | 1019.7 |
| 20260507010026 | 40 | 162 | 6.0 | 11.0 | 0.01 | 0.39 | 0.39 | 68 | 1019.7 |
| 20260507005926 | 40 | 185 | 6.0 | 11.0 | 0.01 | 0.39 | 0.39 | 67 | 1019.6 |
| 20260507005827 | 40 | 119 | 6.0 | 11.0 | 0.01 | 0.39 | 0.39 | 67 | 1019.6 |
| 20260507005733 | 40 | 113 | 6.0 | 11.0 | 0.01 | 0.39 | 0.39 | 66 | 1019.7 |
| 20260507005551 | 40 | 173 | 6.0 | 11.0 | 0.01 | 0.39 | 0.39 | 66 | 1019.6 |
| 20260507005526 | 41 | 196 | 6.0 | 11.0 | 0.01 | 0.39 | 0.39 | 65 | 1019.7 |
| 20260507005426 | 41 | 159 | 6.0 | 11.0 | 0.01 | 0.39 | 0.39 | 65 | 1019.7 |
| 20260507005327 | 41 | 175 | 6.0 | 11.0 | 0.01 | 0.39 | 0.39 | 65 | 1019.7 |
| 20260507005224 | 41 | 171 | 5.0 | 11.0 | 0.01 | 0.39 | 0.39 | 65 | 1019.7 |
| 20260507005124 | 42 | 153 | 5.0 | 9.0 | 0.01 | 0.39 | 0.39 | 65 | 1019.8 |
| 20260507005051 | 42 | 167 | 5.0 | 9.0 | 0.01 | 0.39 | 0.39 | 66 | 1019.8 |
| 20260507005033 | 42 | 178 | 5.0 | 9.0 | 0.01 | 0.39 | 0.39 | 66 | 1019.8 |
| 20260507004717 | 41 | 155 | 5.0 | 9.0 | 0.01 | 0.39 | 0.39 | 66 | 1019.8 |
| 20260507004618 | 41 | 165 | 5.0 | 10.0 | 0.01 | 0.39 | 0.39 | 66 | 1019.8 |
| 20260507004550 | 41 | 178 | 5.0 | 10.0 | 0.01 | 0.39 | 0.39 | 66 | 1019.8 |
| 20260507004516 | 41 | 165 | 5.0 | 10.0 | 0.01 | 0.39 | 0.39 | 66 | 1019.8 |
| 20260507004413 | 41 | 171 | 5.0 | 10.0 | 0.01 | 0.39 | 0.39 | 67 | 1019.8 |
| 20260507004312 | 41 | 160 | 5.0 | 10.0 | 0.01 | 0.39 | 0.39 | 67 | 1019.8 |
| 20260507004211 | 41 | 150 | 5.0 | 10.0 | 0.01 | 0.39 | 0.39 | 67 | 1019.8 |
| 20260507004113 | 41 | 146 | 5.0 | 10.0 | 0.01 | 0.39 | 0.39 | 66 | 1019.8 |
| 20260507004051 | 41 | 176 | 5.0 | 10.0 | 0.01 | 0.39 | 0.39 | 66 | 1019.8 |
| 20260507004013 | 41 | 161 | 5.0 | 10.0 | 0.01 | 0.39 | 0.39 | 66 | 1019.8 |
| 20260507003919 | 41 | 156 | 5.0 | 10.0 | 0.01 | 0.39 | 0.39 | 67 | 1019.9 |
| 20260507003712 | 41 | 153 | 5.0 | 10.0 | 0.01 | 0.39 | 0.39 | 67 | 1019.9 |
| 20260507003659 | 41 | 166 | 5.0 | 10.0 | 0.02 | 0.39 | 0.39 | 68 | 1019.9 |
| 20260507003510 | 41 | 166 | 5.0 | 10.0 | 0.02 | 0.39 | 0.39 | 69 | 1019.9 |
| 20260507003410 | 40 | 163 | 5.0 | 10.0 | 0.02 | 0.39 | 0.39 | 67 | 1019.9 |
| 20260507003310 | 40 | 164 | 5.0 | 10.0 | 0.02 | 0.39 | 0.39 | 67 | 1019.9 |
| 20260507003205 | 40 | 148 | 5.0 | 10.0 | 0.02 | 0.39 | 0.39 | 68 | 1020.0 |
| 20260507003104 | 40 | 174 | 5.0 | 10.0 | 0.02 | 0.39 | 0.39 | 68 | 1020.0 |
| 20260507003051 | 40 | 174 | 5.0 | 10.0 | 0.02 | 0.39 | 0.39 | 68 | 1020.0 |
| 20260507003011 | 40 | 159 | 5.0 | 10.0 | 0.02 | 0.39 | 0.39 | 68 | 1020.0 |
| 20260507002804 | 40 | 153 | 5.0 | 10.0 | 0.02 | 0.39 | 0.39 | 69 | 1020.0 |
| 20260507002704 | 40 | 182 | 5.0 | 9.0 | 0.02 | 0.39 | 0.39 | 69 | 1020.0 |
| 20260507002617 | 40 | 156 | 5.0 | 9.0 | 0.02 | 0.39 | 0.39 | 68 | 1020.0 |
| 20260507002609 | 40 | 156 | 5.0 | 9.0 | 0.02 | 0.39 | 0.39 | 68 | 1020.0 |
| 20260507002404 | 40 | 149 | 5.0 | 9.0 | 0.02 | 0.39 | 0.39 | 68 | 1020.2 |
| 20260507002306 | 40 | 166 | 5.0 | 9.0 | 0.02 | 0.39 | 0.39 | 68 | 1020.2 |
| 20260507002204 | 40 | 161 | 5.0 | 9.0 | 0.02 | 0.39 | 0.39 | 68 | 1020.2 |
| 20260507002104 | 40 | 151 | 5.0 | 9.0 | 0.02 | 0.39 | 0.39 | 68 | 1020.2 |
| 20260507002050 | 40 | 161 | 5.0 | 9.0 | 0.02 | 0.39 | 0.39 | 68 | 1020.2 |
| 20260507002007 | 40 | 178 | 5.0 | 9.0 | 0.02 | 0.39 | 0.39 | 68 | 1020.2 |
| 20260507001800 | 40 | 165 | 5.0 | 9.0 | 0.02 | 0.39 | 0.39 | 68 | 1020.2 |
| 20260507001701 | 40 | 125 | 5.0 | 9.0 | 0.02 | 0.39 | 0.39 | 68 | 1020.2 |
| 20260507001551 | 40 | 140 | 5.0 | 9.0 | 0.02 | 0.39 | 0.39 | 69 | 1020.2 |
| 20260507001459 | 39 | 140 | 5.0 | 9.0 | 0.01 | 0.38 | 0.38 | 69 | 1020.2 |
| 20260507001400 | 39 | 161 | 5.0 | 9.0 | 0.01 | 0.38 | 0.38 | 68 | 1020.2 |
| 20260507001300 | 39 | 150 | 5.0 | 9.0 | 0.02 | 0.38 | 0.38 | 69 | 1020.2 |
| 20260507001201 | 39 | 165 | 5.0 | 9.0 | 0.02 | 0.38 | 0.38 | 68 | 1020.2 |
| 20260507001100 | 39 | 181 | 5.0 | 9.0 | 0.02 | 0.38 | 0.38 | 68 | 1020.2 |
| 20260507001051 | 39 | 176 | 5.0 | 9.0 | 0.02 | 0.38 | 0.38 | 68 | 1020.2 |
| 20260507001008 | 39 | 162 | 5.0 | 9.0 | 0.02 | 0.38 | 0.38 | 68 | 1020.2 |
| 20260507000801 | 40 | 138 | 5.0 | 9.0 | 0.02 | 0.38 | 0.38 | 68 | 1020.2 |
| 20260507000707 | 40 | 169 | 5.0 | 9.0 | 0.02 | 0.38 | 0.38 | 68 | 1020.2 |
| 20260507000551 | 40 | 180 | 5.0 | 9.0 | 0.02 | 0.38 | 0.38 | 68 | 1020.2 |
| 20260507000500 | 40 | 145 | 5.0 | 9.0 | 0.02 | 0.38 | 0.38 | 68 | 1020.2 |
| 20260507000401 | 40 | 188 | 5.0 | 9.0 | 0.02 | 0.38 | 0.38 | 68 | 1020.2 |
| 20260507000259 | 40 | 159 | 5.0 | 9.0 | 0.02 | 0.38 | 0.38 | 68 | 1020.2 |
| 20260507000205 | 40 | 161 | 5.0 | 9.0 | 0.02 | 0.38 | 0.38 | 68 | 1020.2 |
| 20260507000157 | 40 | 147 | 5.0 | 9.0 | 0.02 | 0.38 | 0.38 | 68 | 1020.2 |
| 20260506235957 | 40 | 172 | 5.0 | 9.0 | 0.02 | 0.38 | 0.38 | 67 | 1020.2 |
| 20260506235911 | 40 | 159 | 5.0 | 9.0 | 0.03 | 0.38 | 0.38 | 67 | 1020.2 |
| 20260506235607 | 40 | 158 | 4.0 | 9.0 | 0.03 | 0.38 | 0.38 | 67 | 1020.2 |
| 20260506235601 | 40 | 159 | 4.0 | 9.0 | 0.03 | 0.38 | 0.38 | 67 | 1020.2 |
| 20260506235403 | 40 | 194 | 4.0 | 10.0 | 0.03 | 0.38 | 0.38 | 66 | 1020.2 |
| 20260506235204 | 40 | 157 | 5.0 | 10.0 | 0.03 | 0.38 | 0.38 | 66 | 1020.2 |
| 20260506235051 | 41 | 157 | 5.0 | 10.0 | 0.03 | 0.38 | 0.38 | 66 | 1020.2 |
| 20260506234956 | 41 | 169 | 4.0 | 10.0 | 0.04 | 0.38 | 0.38 | 67 | 1020.2 |
| 20260506234856 | 40 | 175 | 4.0 | 10.0 | 0.04 | 0.38 | 0.38 | 67 | 1020.2 |
| 20260506234756 | 40 | 182 | 4.0 | 10.0 | 0.04 | 0.38 | 0.38 | 67 | 1020.0 |
| 20260506234656 | 40 | 156 | 4.0 | 10.0 | 0.04 | 0.38 | 0.38 | 66 | 1020.2 |
| 20260506234551 | 40 | 159 | 4.0 | 10.0 | 0.04 | 0.38 | 0.38 | 66 | 1020.2 |
| 20260506234504 | 40 | 188 | 5.0 | 10.0 | 0.04 | 0.38 | 0.38 | 66 | 1020.2 |
| 20260506234255 | 40 | 193 | 4.0 | 9.0 | 0.05 | 0.38 | 0.38 | 68 | 1020.2 |
| 20260506234153 | 40 | 143 | 4.0 | 9.0 | 0.05 | 0.38 | 0.38 | 68 | 1020.2 |
| 20260506234101 | 40 | 192 | 4.0 | 9.0 | 0.05 | 0.38 | 0.38 | 69 | 1020.2 |
| 20260506233851 | 40 | 171 | 5.0 | 10.0 | 0.05 | 0.38 | 0.38 | 69 | 1020.2 |
| 20260506233753 | 40 | 161 | 5.0 | 11.0 | 0.06 | 0.38 | 0.38 | 68 | 1020.0 |
| 20260506233703 | 40 | 167 | 5.0 | 11.0 | 0.06 | 0.38 | 0.38 | 68 | 1020.0 |
| 20260506233656 | 39 | 167 | 5.0 | 11.0 | 0.05 | 0.37 | 0.37 | 68 | 1020.0 |
| 20260506233452 | 39 | 159 | 5.0 | 11.0 | 0.05 | 0.37 | 0.37 | 68 | 1020.0 |
| 20260506233400 | 39 | 161 | 6.0 | 11.0 | 0.06 | 0.37 | 0.37 | 69 | 1020.0 |
| 20260506233205 | 39 | 171 | 6.0 | 12.0 | 0.06 | 0.37 | 0.37 | 67 | 1020.0 |
| 20260506233158 | 39 | 143 | 7.0 | 12.0 | 0.06 | 0.37 | 0.37 | 67 | 1019.9 |
| 20260506232951 | 39 | 174 | 7.0 | 12.0 | 0.07 | 0.37 | 0.37 | 66 | 1019.9 |
| 20260506232852 | 39 | 163 | 6.0 | 12.0 | 0.07 | 0.37 | 0.37 | 66 | 1019.9 |
| 20260506232810 | 39 | 158 | 6.0 | 12.0 | 0.07 | 0.37 | 0.37 | 66 | 1020.0 |
| 20260506232656 | 40 | 151 | 5.0 | 12.0 | 0.07 | 0.37 | 0.37 | 66 | 1019.9 |
| 20260506232452 | 40 | 144 | 5.0 | 12.0 | 0.08 | 0.37 | 0.37 | 66 | 1019.9 |
| 20260506232355 | 40 | 148 | 5.0 | 12.0 | 0.08 | 0.37 | 0.37 | 66 | 1019.9 |
| 20260506232149 | 40 | 169 | 5.0 | 10.0 | 0.08 | 0.37 | 0.37 | 66 | 1019.9 |
| 20260506232048 | 40 | 180 | 5.0 | 10.0 | 0.08 | 0.37 | 0.37 | 66 | 1019.9 |
| 20260506231948 | 40 | 125 | 5.0 | 10.0 | 0.09 | 0.37 | 0.37 | 66 | 1019.9 |
| 20260506231849 | 40 | 166 | 5.0 | 10.0 | 0.09 | 0.37 | 0.37 | 67 | 1020.0 |
| 20260506231748 | 40 | 123 | 5.0 | 11.0 | 0.09 | 0.37 | 0.37 | 67 | 1020.0 |
| 20260506231648 | 40 | 161 | 6.0 | 11.0 | 0.09 | 0.37 | 0.37 | 66 | 1020.0 |
| 20260506231549 | 40 | 161 | 6.0 | 11.0 | 0.10 | 0.37 | 0.37 | 65 | 1020.0 |
| 20260506231448 | 40 | 162 | 6.0 | 11.0 | 0.10 | 0.37 | 0.37 | 66 | 1020.2 |
| 20260506231347 | 40 | 153 | 6.0 | 11.0 | 0.10 | 0.37 | 0.37 | 65 | 1020.0 |
| 20260506231248 | 40 | 174 | 6.0 | 11.0 | 0.09 | 0.36 | 0.37 | 65 | 1020.0 |
| 20260506231148 | 40 | 166 | 6.0 | 11.0 | 0.10 | 0.36 | 0.36 | 64 | 1020.2 |
| 20260506231052 | 41 | 158 | 6.0 | 11.0 | 0.10 | 0.36 | 0.36 | 64 | 1020.2 |
| 20260506231047 | 41 | 169 | 6.0 | 11.0 | 0.10 | 0.36 | 0.36 | 64 | 1020.2 |
| 20260506230948 | 41 | 153 | 6.0 | 11.0 | 0.10 | 0.36 | 0.36 | 64 | 1020.2 |
| 20260506230848 | 41 | 154 | 6.0 | 11.0 | 0.10 | 0.36 | 0.36 | 64 | 1020.2 |
| 20260506230748 | 41 | 159 | 6.0 | 11.0 | 0.11 | 0.36 | 0.36 | 63 | 1020.3 |
| 20260506230647 | 41 | 165 | 6.0 | 11.0 | 0.11 | 0.36 | 0.36 | 65 | 1020.2 |
| 20260506230554 | 41 | 158 | 6.0 | 11.0 | 0.11 | 0.36 | 0.36 | 65 | 1020.2 |
| 20260506230549 | 41 | 154 | 5.0 | 11.0 | 0.11 | 0.36 | 0.36 | 65 | 1020.2 |
| 20260506230449 | 41 | 176 | 5.0 | 11.0 | 0.11 | 0.36 | 0.36 | 65 | 1020.2 |
| 20260506230345 | 41 | 153 | 5.0 | 11.0 | 0.11 | 0.36 | 0.36 | 65 | 1020.2 |
| 20260506230243 | 41 | 190 | 5.0 | 11.0 | 0.12 | 0.36 | 0.36 | 66 | 1020.2 |
| 20260506230210 | 41 | 176 | 5.0 | 11.0 | 0.12 | 0.36 | 0.36 | 65 | 1020.2 |
| 20260506230202 | 41 | 188 | 5.0 | 11.0 | 0.12 | 0.36 | 0.36 | 64 | 1020.0 |
| 20260506225804 | 41 | 148 | 5.0 | 9.0 | 0.11 | 0.35 | 0.35 | 64 | 1020.0 |
| 20260506225545 | 41 | 181 | 5.0 | 9.0 | 0.11 | 0.35 | 0.35 | 63 | 1020.0 |
| 20260506225443 | 42 | 193 | 5.0 | 9.0 | 0.12 | 0.35 | 0.35 | 62 | 1020.0 |
| 20260506225341 | 42 | 167 | 5.0 | 9.0 | 0.12 | 0.35 | 0.35 | 62 | 1020.0 |
| 20260506225244 | 42 | 177 | 5.0 | 9.0 | 0.12 | 0.35 | 0.35 | 63 | 1020.2 |
| 20260506225050 | 42 | 175 | 5.0 | 12.0 | 0.13 | 0.35 | 0.35 | 62 | 1020.2 |
| 20260506225036 | 42 | 163 | 5.0 | 12.0 | 0.13 | 0.35 | 0.35 | 62 | 1020.2 |
| 20260506224936 | 42 | 167 | 5.0 | 12.0 | 0.12 | 0.34 | 0.35 | 62 | 1020.3 |
| 20260506224836 | 42 | 119 | 5.0 | 12.0 | 0.12 | 0.34 | 0.34 | 61 | 1020.3 |
| 20260506224734 | 43 | 121 | 5.0 | 12.0 | 0.12 | 0.34 | 0.34 | 62 | 1020.3 |
| 20260506224628 | 43 | 168 | 6.0 | 12.0 | 0.13 | 0.34 | 0.34 | 62 | 1020.2 |
| 20260506224550 | 43 | 180 | 6.0 | 12.0 | 0.13 | 0.34 | 0.34 | 62 | 1020.3 |
| 20260506224529 | 43 | 152 | 6.0 | 12.0 | 0.13 | 0.34 | 0.34 | 62 | 1020.3 |
| 20260506224428 | 43 | 134 | 6.0 | 12.0 | 0.13 | 0.34 | 0.34 | 61 | 1020.3 |
| 20260506224327 | 43 | 168 | 6.0 | 12.0 | 0.14 | 0.34 | 0.34 | 61 | 1020.3 |
| 20260506224227 | 43 | 182 | 6.0 | 12.0 | 0.13 | 0.33 | 0.33 | 61 | 1020.2 |
| 20260506224122 | 43 | 155 | 6.0 | 12.0 | 0.13 | 0.33 | 0.33 | 61 | 1020.2 |
| 20260506224043 | 43 | 124 | 6.0 | 11.0 | 0.13 | 0.33 | 0.33 | 61 | 1020.2 |
| 20260506224022 | 43 | 128 | 6.0 | 11.0 | 0.13 | 0.33 | 0.33 | 61 | 1020.2 |
| 20260506223921 | 43 | 186 | 6.0 | 11.0 | 0.13 | 0.33 | 0.33 | 60 | 1020.2 |
| 20260506223821 | 44 | 169 | 6.0 | 12.0 | 0.13 | 0.32 | 0.33 | 61 | 1020.3 |
| 20260506223735 | 44 | 157 | 6.0 | 12.0 | 0.13 | 0.32 | 0.32 | 60 | 1020.2 |
| 20260506223727 | 44 | 173 | 6.0 | 12.0 | 0.13 | 0.32 | 0.32 | 61 | 1020.2 |
| 20260506223415 | 44 | 166 | 6.0 | 12.0 | 0.12 | 0.31 | 0.32 | 62 | 1020.2 |
| 20260506223315 | 44 | 206 | 6.0 | 12.0 | 0.13 | 0.31 | 0.31 | 61 | 1020.2 |
| 20260506223213 | 44 | 189 | 6.0 | 12.0 | 0.13 | 0.31 | 0.31 | 60 | 1020.2 |
| 20260506223109 | 44 | 174 | 6.0 | 12.0 | 0.13 | 0.31 | 0.31 | 60 | 1020.2 |
| 20260506223045 | 44 | 172 | 6.0 | 12.0 | 0.13 | 0.31 | 0.31 | 60 | 1020.2 |
| 20260506223014 | 44 | 168 | 6.0 | 12.0 | 0.12 | 0.30 | 0.31 | 60 | 1020.2 |
| 20260506222807 | 44 | 165 | 6.0 | 11.0 | 0.12 | 0.30 | 0.30 | 62 | 1020.3 |
| 20260506222707 | 44 | 182 | 6.0 | 11.0 | 0.13 | 0.30 | 0.30 | 62 | 1020.3 |
| 20260506222604 | 44 | 169 | 6.0 | 11.0 | 0.13 | 0.30 | 0.30 | 62 | 1020.3 |
| 20260506222544 | 44 | 196 | 6.0 | 11.0 | 0.13 | 0.30 | 0.30 | 62 | 1020.3 |
| 20260506222501 | 44 | 147 | 6.0 | 11.0 | 0.12 | 0.29 | 0.30 | 62 | 1020.3 |
| 20260506222402 | 43 | 171 | 6.0 | 11.0 | 0.13 | 0.29 | 0.29 | 61 | 1020.3 |
| 20260506222305 | 43 | 189 | 6.0 | 11.0 | 0.13 | 0.29 | 0.29 | 61 | 1020.3 |
| 20260506222201 | 43 | 180 | 6.0 | 11.0 | 0.13 | 0.29 | 0.29 | 61 | 1020.4 |
| 20260506222042 | 43 | 146 | 6.0 | 11.0 | 0.14 | 0.29 | 0.29 | 63 | 1020.4 |
| 20260506221954 | 43 | 167 | 6.0 | 10.0 | 0.13 | 0.28 | 0.28 | 64 | 1020.4 |
| 20260506221900 | 43 | 219 | 5.0 | 10.0 | 0.13 | 0.28 | 0.28 | 64 | 1020.4 |
| 20260506221657 | 42 | 173 | 4.0 | 10.0 | 0.14 | 0.28 | 0.28 | 63 | 1020.4 |
| 20260506221650 | 42 | 185 | 4.0 | 10.0 | 0.13 | 0.27 | 0.28 | 62 | 1020.4 |
| 20260506221447 | 42 | 195 | 4.0 | 10.0 | 0.13 | 0.27 | 0.27 | 62 | 1020.5 |
| 20260506221354 | 42 | 187 | 3.0 | 10.0 | 0.13 | 0.27 | 0.27 | 63 | 1020.5 |
| 20260506221147 | 42 | 202 | 3.0 | 7.0 | 0.12 | 0.26 | 0.27 | 65 | 1020.5 |
| 20260506221049 | 42 | 205 | 3.0 | 7.0 | 0.12 | 0.26 | 0.26 | 66 | 1020.5 |
| 20260506220853 | 41 | 192 | 3.0 | 7.0 | 0.13 | 0.26 | 0.26 | 66 | 1020.5 |
| 20260506220535 | 40 | 185 | 4.0 | 7.0 | 0.12 | 0.25 | 0.25 | 67 | 1020.5 |
| 20260506220442 | 40 | 184 | 4.0 | 7.0 | 0.13 | 0.25 | 0.25 | 66 | 1020.5 |
| 20260506220234 | 40 | 155 | 4.0 | 7.0 | 0.12 | 0.25 | 0.24 | 65 | 1020.6 |
| 20260506220149 | 40 | 158 | 4.0 | 7.0 | 0.12 | 0.25 | 0.24 | 65 | 1020.6 |
| 20260506220032 | 40 | 175 | 4.0 | 10.0 | 0.12 | 0.25 | 0.24 | 64 | 1020.6 |
| 20260506215837 | 40 | 159 | 4.0 | 10.0 | 0.13 | 0.25 | 0.24 | 64 | 1020.7 |
| 20260506215536 | 41 | 145 | 4.0 | 10.0 | 0.13 | 0.25 | 0.24 | 63 | 1020.7 |
| 20260506215517 | 41 | 124 | 4.0 | 10.0 | 0.12 | 0.24 | 0.23 | 64 | 1020.7 |
| 20260506215418 | 41 | 124 | 4.0 | 10.0 | 0.13 | 0.24 | 0.23 | 65 | 1020.6 |
| 20260506215319 | 41 | 95 | 4.0 | 10.0 | 0.13 | 0.24 | 0.23 | 65 | 1020.6 |
| 20260506215217 | 41 | 155 | 3.0 | 10.0 | 0.13 | 0.24 | 0.23 | 66 | 1020.6 |
| 20260506215144 | 41 | 147 | 3.0 | 10.0 | 0.12 | 0.23 | 0.23 | 66 | 1020.6 |
| 20260506215018 | 41 | 144 | 3.0 | 7.0 | 0.13 | 0.23 | 0.22 | 67 | 1020.7 |
| 20260506214811 | 40 | 134 | 3.0 | 7.0 | 0.13 | 0.23 | 0.22 | 67 | 1020.7 |
| 20260506214719 | 40 | 132 | 3.0 | 6.0 | 0.12 | 0.22 | 0.22 | 66 | 1020.7 |
| 20260506214534 | 40 | 94 | 3.0 | 6.0 | 0.12 | 0.22 | 0.21 | 67 | 1020.9 |
| 20260506214506 | 40 | 104 | 3.0 | 6.0 | 0.13 | 0.22 | 0.21 | 68 | 1020.9 |
| 20260506214406 | 40 | 115 | 3.0 | 6.0 | 0.13 | 0.22 | 0.21 | 68 | 1020.9 |
| 20260506214304 | 40 | 93 | 3.0 | 6.0 | 0.12 | 0.21 | 0.21 | 67 | 1020.9 |
| 20260506214206 | 40 | 155 | 3.0 | 6.0 | 0.12 | 0.21 | 0.20 | 66 | 1020.9 |
| 20260506214104 | 40 | 92 | 3.0 | 6.0 | 0.12 | 0.21 | 0.20 | 67 | 1020.9 |
| 20260506214034 | 40 | 100 | 3.0 | 6.0 | 0.12 | 0.21 | 0.20 | 67 | 1020.9 |
| 20260506214001 | 40 | 117 | 3.0 | 5.0 | 0.12 | 0.21 | 0.20 | 67 | 1020.9 |
| 20260506213901 | 40 | 101 | 3.0 | 5.0 | 0.12 | 0.21 | 0.20 | 67 | 1020.9 |
| 20260506213759 | 40 | 93 | 3.0 | 5.0 | 0.12 | 0.20 | 0.20 | 67 | 1021.0 |
| 20260506213704 | 40 | 166 | 3.0 | 5.0 | 0.12 | 0.20 | 0.19 | 66 | 1021.0 |
| 20260506213535 | 40 | 154 | 3.0 | 6.0 | 0.12 | 0.20 | 0.19 | 63 | 1020.9 |
| 20260506213451 | 41 | 130 | 3.0 | 6.0 | 0.12 | 0.20 | 0.19 | 63 | 1021.0 |
| 20260506213351 | 41 | 112 | 3.0 | 6.0 | 0.12 | 0.20 | 0.19 | 64 | 1021.0 |